GFSNE_sfc_dewp_000.txt.gz
Dewpoint
56 55 55 55 56 55 55 53 52 50 49 50 50 52 50 42 41 38 36 41 41 40 39 39 40 40 40 40 39 38 37 37 37 37 38 38 40 39
57 56 56 55 56 56 55 54 53 52 50 50 51 52 43 32 38 34 36 39 38 37 37 37 37 37 37 36 36 36 35 35 36 36 38 39 38 38
57 57 57 56 56 55 54 53 52 51 50 51 52 52 41 36 34 34 35 34 34 33 33 34 34 34 34 34 34 34 34 34 34 35 35 35 36 37
57 57 56 56 56 56 55 53 52 52 51 50 52 46 40 33 34 33 32 31 32 29 30 30 33 32 32 32 32 32 32 32 33 33 32 33 34 34
57 57 57 56 56 56 56 54 54 52 52 51 52 41 36 35 35 35 34 34 30 28 28 31 29 30 31 31 31 32 31 31 32 31 32 32 33 34
57 57 57 56 56 56 56 55 54 53 53 52 50 39 36 36 36 36 34 34 31 22 28 27 27 28 30 30 30 29 29 31 32 31 31 32 32 33
57 57 57 55 53 55 55 55 54 54 52 49 42 38 36 35 35 35 34 32 26 26 26 24 23 23 24 26 26 27 30 32 32 31 31 31 31 32
56 56 57 52 53 53 53 53 55 54 50 47 43 41 37 36 35 34 31 26 20 29 25 22 23 23 23 23 25 29 31 32 30 30 31 30 30 30
56 56 56 56 53 55 53 53 53 52 51 48 42 40 38 34 34 32 29 23 21 22 23 22 24 24 22 20 26 28 31 31 29 30 29 29 29 29
56 56 56 56 55 55 54 52 51 48 45 44 43 36 36 35 33 28 25 23 24 21 26 25 21 20 21 22 24 27 30 28 29 29 28 28 28 29
55 55 56 56 54 52 52 47 41 37 36 38 37 36 36 33 27 24 28 27 20 18 25 23 20 20 19 19 20 24 26 26 27 27 28 27 28 28
54 55 52 55 52 51 50 44 40 36 36 34 34 33 31 29 28 26 29 27 24 16 24 22 19 20 18 18 19 19 17 20 23 25 25 27 27 25
52 53 54 51 50 49 49 45 43 37 37 35 32 30 28 28 27 27 29 28 26 24 23 25 26 23 20 19 17 17 16 16 15 18 22 23 24 26
52 52 51 48 47 47 46 45 41 39 34 31 27 25 26 27 29 29 29 29 28 27 26 28 25 24 22 19 15 15 15 16 16 15 17 21 24 24
51 51 48 46 46 45 45 43 39 32 28 25 23 25 27 29 28 27 28 28 29 28 26 28 27 26 23 21 18 17 16 14 14 15 15 16 17 18
46 46 45 45 44 41 40 38 33 31 27 23 23 24 25 26 25 27 25 25 24 24 27 29 27 25 23 22 21 18 17 14 14 14 15 16 17 18
42 43 42 39 38 38 34 32 31 29 24 22 21 21 20 23 24 25 24 23 22 22 23 25 26 25 25 24 20 20 18 15 14 15 16 16 17 18
41 40 37 36 36 33 31 31 29 26 24 23 22 20 22 24 23 23 23 23 22 21 22 24 22 22 22 23 24 20 16 13 15 15 16 16 17 19
40 38 36 36 35 32 32 30 27 24 25 24 24 25 25 25 25 22 22 21 21 22 24 23 21 20 17 15 15 23 16 14 14 14 16 17 18 19
36 37 36 35 34 33 31 28 25 25 25 25 26 26 25 25 23 21 21 22 21 23 22 23 22 21 18 16 16 14 17 13 14 15 17 19 20 25
34 35 35 34 33 32 29 27 27 27 26 26 25 25 25 24 22 21 21 21 21 22 20 20 21 19 19 17 15 16 18 21 19 19 20 20 20 20
34 34 33 33 32 30 29 29 27 27 26 25 24 24 23 22 21 20 20 21 21 21 20 21 21 20 19 18 16 17 18 21 23 23 24 23 22 20
34 33 32 32 32 31 29 29 28 26 26 24 23 23 22 21 21 21 20 20 20 18 18 16 18 19 18 17 17 18 22 22 22 23 23 24 27 30

GFSNE_sfc_dewp_003.txt.gz
Dewpoint
60 59 57 56 56 55 55 54 51 49 49 50 49 51 51 51 47 42 40 46 46 46 45 43 42 40 40 40 40 39 39 38 37 38 38 38 39 41
59 58 57 57 56 56 55 55 55 53 51 51 51 52 48 41 44 39 39 45 44 44 42 41 39 38 38 38 37 38 37 37 37 37 37 37 37 38
58 58 57 57 56 56 56 56 55 55 52 53 54 53 41 36 36 36 40 37 39 40 39 39 36 36 36 35 36 35 35 35 35 36 36 36 36 36
57 57 57 57 57 56 56 56 55 55 54 52 53 53 45 39 36 36 34 33 36 37 36 34 33 35 35 34 35 34 34 34 34 34 34 34 35 35
57 57 57 57 56 56 56 56 55 55 54 53 52 52 45 40 36 36 37 36 33 36 33 32 34 33 33 34 33 33 33 33 32 32 32 34 33 34
56 56 56 57 56 56 56 56 55 54 54 53 52 44 43 42 39 37 37 37 36 30 27 30 31 30 31 32 32 32 32 31 32 33 33 32 32 32
55 56 56 54 53 55 56 56 56 55 54 52 51 43 42 41 39 40 38 37 36 31 29 28 28 29 28 28 30 30 30 31 33 33 32 32 32 32
53 54 55 52 53 53 53 53 55 55 53 52 50 46 45 43 42 38 36 32 28 30 28 26 26 25 26 26 27 28 30 32 32 33 31 31 31 31
51 53 53 55 53 56 54 53 53 53 53 53 50 48 47 43 41 37 34 30 27 29 26 23 26 26 26 23 27 28 29 30 32 32 30 30 30 30
50 52 53 53 53 55 55 55 53 54 53 52 52 50 45 41 39 38 32 28 26 24 27 26 25 24 24 25 27 27 28 31 30 30 30 30 29 30
49 50 51 53 52 52 54 53 51 46 44 46 45 43 42 40 34 29 28 28 23 21 27 25 23 22 23 21 22 24 27 28 28 27 28 29 29 29
48 48 48 51 52 52 53 52 44 39 39 39 38 38 36 34 32 31 30 29 28 19 26 24 21 21 21 20 21 22 22 23 23 24 26 26 27 26
45 45 48 49 51 51 51 52 47 39 40 36 33 31 30 30 29 31 32 31 28 27 28 28 27 25 23 22 20 20 20 20 19 19 22 24 26 25
41 42 45 47 48 49 50 51 47 41 36 34 32 30 29 29 29 30 31 31 31 29 28 28 23 23 21 20 18 18 19 19 19 18 18 21 24 24
41 42 44 45 46 48 49 46 42 37 34 33 31 29 29 30 30 30 30 30 30 29 29 28 26 24 25 21 19 19 19 18 18 18 18 18 18 19
40 41 43 44 46 46 44 42 37 36 35 32 28 28 29 28 28 29 27 27 26 27 28 28 26 26 23 21 21 21 21 18 17 17 17 18 18 19
41 42 42 40 38 37 38 33 33 34 30 28 27 26 26 27 27 28 28 26 25 25 25 27 27 26 25 23 21 21 20 19 18 16 17 16 17 18
42 42 39 37 37 37 33 32 32 32 28 27 25 25 25 26 26 26 26 25 24 24 23 24 21 19 20 23 26 21 21 17 16 16 16 15 16 19
39 38 35 35 35 33 32 32 31 29 29 27 25 26 27 26 25 25 24 24 23 23 23 20 17 15 13 14 20 27 20 17 16 13 15 16 17 18
36 34 35 35 34 32 32 31 29 29 28 27 27 27 27 26 25 24 23 23 23 22 19 18 17 17 12 12 15 17 20 17 14 14 16 18 19 24
35 34 33 34 33 32 31 29 28 28 28 28 27 27 27 26 24 23 23 23 22 20 16 17 17 20 13 12 11 15 18 23 22 20 21 22 20 20
34 34 34 32 32 31 29 29 29 28 27 27 27 27 27 25 23 22 22 21 21 19 16 17 17 15 13 14 15 15 17 20 24 26 26 27 24 19
33 34 33 32 32 31 30 29 29 28 27 27 27 27 25 23 22 22 22 22 20 16 16 16 16 17 15 16 18 17 18 21 23 22 24 29 32 31

GFSNE_sfc_dewp_006.txt.gz
Dewpoint
60 60 60 59 58 57 56 55 53 50 49 51 50 52 51 51 51 51 47 51 52 52 52 51 50 47 45 44 43 43 41 40 38 38 38 39 39 39
59 59 59 59 58 57 56 55 54 53 51 51 51 52 52 53 53 48 45 47 50 51 51 49 47 45 44 42 41 40 38 36 37 37 38 38 38 38
58 58 58 58 58 57 56 56 55 55 53 53 54 54 51 51 48 44 44 43 46 49 48 46 44 43 42 40 38 36 36 35 35 36 36 37 37 37
54 56 56 57 57 58 56 55 55 55 54 53 54 54 49 47 46 43 43 41 43 45 45 44 43 41 39 38 35 35 35 34 34 34 35 35 36 35
51 52 53 55 55 56 57 56 55 55 55 54 53 54 48 45 43 43 42 40 39 43 43 41 40 38 38 35 34 35 34 34 34 34 33 34 34 35
50 51 52 53 54 55 55 56 56 55 55 54 53 52 44 43 44 42 39 40 37 37 38 36 36 37 36 34 34 33 33 33 34 33 33 33 34 33
47 48 49 50 50 53 55 55 56 56 55 54 53 48 43 40 41 43 42 40 39 34 31 29 31 30 30 32 33 32 33 32 32 33 33 34 33 33
46 47 48 49 51 52 53 52 54 55 54 53 53 50 48 46 44 43 42 37 34 33 31 29 27 27 27 26 29 29 30 30 31 33 33 33 32 32
45 46 47 49 50 52 52 53 53 53 53 55 53 52 50 48 45 42 42 38 33 30 28 24 25 25 26 24 29 30 30 30 31 32 33 32 32 31
43 43 46 47 49 50 51 51 52 54 54 53 54 54 53 51 47 44 41 33 30 30 28 24 25 24 26 26 30 29 29 30 30 32 31 31 31 31
41 42 42 44 45 48 49 49 49 52 47 49 51 51 51 49 45 38 34 32 26 25 27 24 22 21 22 22 23 26 27 28 30 30 30 29 29 30
37 37 42 43 44 45 46 47 48 49 42 40 42 43 45 44 43 41 34 32 30 27 28 24 21 21 19 22 21 22 22 26 25 25 26 26 27 25
30 33 37 42 43 44 44 44 45 49 43 39 36 35 34 34 34 34 35 33 29 27 28 27 23 24 22 22 21 20 19 19 20 21 24 24 25 25
31 31 35 39 41 42 43 45 46 47 39 35 33 32 31 31 32 32 32 31 31 30 29 25 21 21 16 19 19 20 18 19 20 19 19 22 23 24
31 34 38 40 41 42 43 44 46 41 36 33 32 32 31 31 31 30 30 30 30 30 28 25 22 20 18 16 17 18 20 20 20 21 19 18 18 18
34 35 39 42 44 44 43 43 39 37 35 34 33 32 31 30 28 28 27 27 26 26 28 25 24 19 15 18 19 19 19 20 20 19 19 18 19 19
36 37 38 37 38 39 37 34 34 35 32 32 30 29 28 28 27 28 27 27 26 25 24 25 23 22 21 17 21 20 20 20 20 20 17 16 17 18
32 35 35 35 35 36 34 32 32 31 30 30 29 29 28 27 26 28 27 26 24 23 21 18 16 15 14 19 25 19 19 20 20 18 16 15 14 17
29 33 34 33 33 34 32 32 30 30 30 29 28 28 28 27 27 26 26 24 23 20 16 12 9 7 5 7 17 25 22 22 20 18 16 14 14 16
28 29 33 33 32 32 32 31 29 28 28 28 28 27 27 27 26 25 24 21 21 16 15 11 7 2 11 7 14 17 19 15 14 15 15 17 19 24
26 28 32 33 32 32 31 29 29 28 28 28 28 27 27 27 26 24 22 23 22 17 12 8 9 21 3 3 7 13 17 21 21 20 22 23 22 21
25 29 32 33 32 32 30 29 28 29 28 28 27 27 27 27 24 22 22 21 20 17 9 6 7 5 4 9 11 13 16 19 22 25 29 30 25 21
27 29 32 32 32 32 30 29 29 28 28 27 27 27 27 24 23 23 21 22 18 13 12 10 9 5 9 10 18 17 17 21 24 24 24 28 30 31

GFSNE_sfc_dewp_009.txt.gz
Dewpoint
59 60 60 60 60 59 58 57 55 51 50 50 50 52 51 51 51 51 50 52 55 56 57 57 57 57 55 54 51 49 48 46 45 43 42 40 41 41
56 57 57 58 59 59 59 58 57 55 52 53 52 53 53 52 52 51 51 51 54 56 56 54 55 54 53 51 48 47 45 44 43 41 40 40 40 40
50 51 53 55 56 56 57 57 57 56 54 54 53 54 54 53 53 52 52 51 51 54 55 54 53 53 51 48 47 45 44 42 40 40 39 40 40 39
47 49 50 51 52 53 55 55 56 56 55 53 54 54 54 54 53 50 49 49 49 51 53 53 52 51 49 46 45 43 41 39 38 38 38 38 37 38
45 46 47 48 49 50 51 53 54 54 55 55 54 55 55 47 45 45 46 46 45 47 51 52 50 49 47 45 43 41 39 38 37 36 36 35 35 36
45 46 46 47 47 48 49 50 51 52 53 53 54 54 54 46 47 47 43 44 44 43 47 48 48 47 46 43 41 38 38 37 37 36 35 34 34 34
44 43 44 46 46 48 49 50 51 51 50 51 51 52 52 42 44 46 46 45 42 42 42 43 42 42 40 41 39 38 36 36 36 35 35 34 34 34
36 40 42 44 44 48 49 50 51 50 50 50 50 50 50 49 48 47 45 40 37 40 38 38 38 37 36 36 37 35 35 35 35 34 34 34 34 34
37 37 39 40 39 41 44 46 47 49 50 50 50 50 51 52 51 48 46 43 42 38 38 35 34 33 33 33 34 33 32 33 33 33 33 33 34 33
35 35 37 32 35 40 42 42 42 44 46 49 50 51 52 53 53 50 47 42 33 34 36 31 31 31 31 29 32 32 32 32 32 32 33 33 32 31
32 34 29 30 36 40 38 39 39 40 43 45 48 48 49 51 52 42 36 36 31 31 31 30 29 29 29 28 26 31 32 31 31 31 32 32 31 31
32 31 33 31 36 38 36 37 37 38 39 41 44 46 46 48 50 48 43 39 32 29 30 29 28 28 24 26 23 23 25 29 30 31 31 30 29 26
30 31 30 33 36 38 40 40 40 41 42 42 44 38 35 35 35 36 38 39 34 32 31 30 28 26 23 22 21 21 20 20 20 22 25 26 26 25
29 30 29 35 36 39 41 43 44 44 42 42 38 34 32 32 32 33 33 33 33 33 32 31 27 26 23 21 18 20 18 19 19 18 19 22 25 25
28 31 35 35 37 38 38 40 41 40 40 39 35 32 32 32 32 30 31 31 31 31 30 28 26 23 22 20 19 19 19 19 20 19 20 20 19 18
30 30 33 33 36 36 36 37 35 35 35 34 32 32 32 30 29 30 28 28 27 26 28 26 24 23 21 19 20 18 19 17 19 19 19 19 19 19
30 30 28 28 31 32 34 34 35 34 32 32 31 30 29 28 27 28 27 27 25 24 25 26 26 24 20 17 14 18 19 19 20 20 19 19 18 18
27 25 25 28 30 31 32 32 33 32 31 31 30 29 28 27 26 27 27 26 25 24 22 24 23 21 14 17 24 18 18 19 19 20 20 17 16 16
24 25 26 28 29 32 32 31 31 31 30 30 29 28 27 27 27 26 26 26 24 21 17 13 15 8 3 9 16 25 20 21 21 20 19 18 16 16
24 25 27 28 30 31 31 31 31 29 29 28 28 27 28 27 26 26 26 24 21 16 13 10 5 4 7 7 10 15 22 17 14 13 14 17 18 22
24 25 27 27 29 31 31 31 29 28 28 28 27 27 27 27 26 26 23 23 20 14 9 8 11 20 -2 3 8 13 16 21 20 17 19 20 20 21
25 25 25 27 28 29 31 31 28 29 27 27 27 27 27 27 26 23 21 20 17 12 10 4 3 1 0 8 9 10 15 18 22 25 27 28 24 21
23 24 27 25 26 29 31 30 29 28 27 27 27 27 27 25 23 22 21 19 17 13 9 8 6 1 6 10 13 13 14 18 19 22 24 27 29 30

GFSNE_sfc_dewp_012.txt.gz
Dewpoint
51 53 55 55 56 57 57 58 56 53 52 54 53 52 52 52 52 52 51 52 54 55 55 55 56 57 57 58 58 58 58 57 55 53 51 49 47 45
48 48 49 51 53 55 55 55 55 54 51 53 55 55 55 53 53 53 52 51 53 54 55 55 55 56 56 57 57 57 57 55 52 51 49 47 45 43
43 45 46 48 49 50 51 51 52 52 51 51 53 55 56 56 54 53 53 52 52 53 54 55 55 55 56 56 56 55 54 51 50 49 47 45 43 42
41 44 45 46 46 47 48 48 49 49 50 49 50 52 53 55 55 55 53 53 53 53 54 54 55 55 55 55 54 53 51 50 48 47 44 42 41 42
43 45 44 44 42 44 46 46 46 48 49 49 49 50 51 53 53 52 54 53 52 52 53 54 55 55 55 54 52 51 49 48 46 43 41 40 40 40
43 37 37 38 39 42 43 44 46 48 48 48 48 48 49 50 50 51 50 47 48 48 49 51 53 54 54 53 51 49 47 46 44 41 39 38 38 38
31 29 34 39 42 44 42 36 41 44 42 44 45 47 48 48 46 48 48 49 47 48 46 47 50 51 51 51 48 47 45 44 43 41 39 38 37 36
27 26 31 36 38 39 35 38 41 40 41 42 43 43 44 48 49 49 48 47 45 43 43 44 46 45 46 47 46 46 43 43 42 40 38 37 37 36
26 25 26 31 37 30 32 35 37 38 40 40 40 40 41 44 47 48 48 48 46 42 43 41 40 42 40 42 45 43 42 41 40 38 37 36 36 35
26 26 29 33 33 33 31 32 33 34 36 37 39 39 41 43 44 47 48 49 39 38 41 37 35 37 35 38 43 42 41 39 38 38 36 36 35 34
25 27 31 31 33 35 31 30 31 34 38 41 42 43 44 44 45 45 44 39 38 35 36 33 31 30 32 33 37 40 39 38 37 35 35 34 34 33
26 31 32 30 33 33 30 30 33 35 37 39 41 42 43 43 44 44 44 42 39 31 33 33 30 29 27 29 31 32 36 37 35 34 34 34 33 30
26 27 26 31 32 33 34 33 37 37 37 38 39 41 42 42 38 36 37 43 41 34 33 32 29 27 28 25 27 30 30 25 28 30 32 33 33 30
28 25 27 31 33 33 32 36 37 37 36 35 35 37 39 36 33 33 33 33 34 34 35 32 28 27 25 24 23 23 20 21 20 19 19 23 28 29
25 28 30 30 30 30 32 34 35 33 33 33 33 34 34 33 32 31 31 30 29 30 29 29 28 27 26 24 21 19 18 18 19 18 19 19 19 19
29 25 28 28 28 28 29 31 31 33 33 33 32 33 32 30 29 30 29 28 26 25 27 27 27 25 22 22 20 19 19 15 19 19 19 19 19 19
24 25 22 22 24 25 27 29 30 32 32 32 31 31 30 28 27 28 28 27 25 24 24 25 25 24 22 19 17 17 18 18 19 19 20 18 19 19
22 22 22 22 24 25 27 28 29 31 31 31 30 30 28 27 26 27 28 26 24 24 23 24 22 17 15 17 21 15 19 19 19 20 20 18 17 17
21 23 22 22 24 25 26 28 28 31 31 29 29 28 28 27 27 26 26 26 24 21 18 18 12 5 4 6 15 24 18 19 20 20 20 19 17 17
22 21 21 22 24 25 26 26 28 30 29 28 28 27 27 27 26 26 26 23 21 19 12 8 7 -0 3 5 9 15 24 21 20 15 13 18 19 22
21 21 21 22 25 25 24 26 28 29 30 28 27 27 27 27 26 25 25 23 21 15 14 9 5 18 -2 3 9 13 16 19 19 16 18 17 19 21
21 21 21 23 24 23 24 26 28 29 28 27 26 27 27 27 25 24 23 21 19 17 10 4 4 2 2 7 6 8 13 17 21 24 26 24 20 16
22 22 21 24 23 23 23 26 27 28 27 27 26 26 26 24 23 22 21 19 16 15 12 10 6 3 5 8 7 7 10 14 17 20 24 28 28 28

GFSNE_sfc_dewp_015.txt.gz
Dewpoint
47 47 46 47 50 50 51 51 50 45 45 48 50 54 56 56 54 54 54 55 55 54 55 56 56 56 56 57 58 58 58 59 59 60 60 57 56 55
40 42 43 46 47 48 48 48 48 48 45 47 48 50 53 54 55 54 53 52 54 56 55 55 55 55 55 55 56 57 57 58 58 60 60 57 55 53
38 41 42 45 45 43 43 43 44 46 44 44 45 48 49 51 52 55 55 54 53 54 55 55 55 55 55 55 55 56 57 57 57 58 59 57 55 52
37 40 43 38 36 37 39 39 43 43 43 40 43 44 46 49 50 51 53 54 54 54 55 55 54 55 55 55 55 55 55 56 56 57 57 56 53 52
38 38 30 31 31 36 35 37 42 41 35 38 41 44 45 48 49 50 51 53 54 53 55 54 55 55 55 55 55 55 55 55 55 54 54 53 52 49
28 29 28 27 28 33 35 38 33 32 35 38 37 38 40 42 45 46 47 49 50 51 52 52 53 53 54 55 55 54 53 54 53 53 51 50 47 46
20 17 21 29 33 30 31 36 34 32 33 32 33 34 36 39 39 43 44 45 47 48 48 50 49 50 51 53 53 53 53 52 51 51 49 47 45 44
18 20 26 28 28 34 36 36 34 33 31 31 31 31 32 35 38 40 41 41 41 47 48 47 49 47 49 50 52 52 51 50 49 48 46 44 43 42
21 23 24 24 30 32 33 33 34 34 34 32 31 32 34 35 37 38 38 39 39 44 45 45 44 45 47 46 50 50 49 48 46 46 44 43 42 40
23 24 25 27 30 28 27 28 29 29 30 30 32 35 37 38 39 39 39 39 40 42 44 41 42 41 38 41 48 48 47 45 45 44 43 42 40 40
25 26 27 26 30 30 27 28 28 28 32 36 39 40 40 41 42 41 40 38 37 40 40 41 37 33 33 35 43 46 45 44 43 42 42 41 40 39
28 29 30 28 30 31 27 28 32 33 33 36 35 35 36 36 39 40 41 39 39 39 36 37 31 30 29 30 33 42 41 42 41 41 41 41 39 34
31 25 25 30 31 30 29 29 31 33 34 34 32 32 31 33 37 38 38 38 37 36 39 36 31 30 29 26 29 31 32 36 37 39 40 39 37 34
24 25 28 29 28 28 27 28 30 33 30 30 31 31 31 34 35 35 34 33 33 33 37 34 30 28 26 25 24 26 28 29 31 32 32 36 36 36
25 31 27 27 27 25 27 29 30 28 29 29 30 30 32 33 33 31 31 30 28 28 29 31 30 29 28 25 23 23 24 25 27 25 24 24 23 22
34 23 24 24 26 25 25 26 26 27 28 30 31 31 32 31 29 30 29 28 25 24 26 28 27 27 24 24 25 24 24 23 23 22 20 19 19 19
24 21 19 20 20 20 22 23 25 25 28 29 30 29 28 29 28 28 28 27 24 23 23 25 25 25 24 23 22 22 20 19 19 19 18 18 18 18
21 19 19 20 21 21 21 22 25 25 27 28 29 28 27 28 27 27 28 26 24 23 23 23 23 21 19 20 22 18 18 18 19 19 18 16 16 18
21 21 21 21 21 20 22 24 23 24 27 28 29 28 27 27 28 26 26 25 23 21 19 18 17 14 12 9 15 21 17 18 18 19 19 18 17 17
22 20 21 21 21 21 22 23 23 24 25 28 28 27 27 27 26 26 25 23 21 20 17 14 11 6 5 6 10 14 22 20 20 19 18 19 19 21
20 20 21 21 21 21 22 23 23 23 26 28 27 26 26 26 25 25 25 24 21 19 17 14 13 16 -4 4 12 13 16 23 22 16 16 15 17 20
20 21 21 21 21 22 23 22 22 23 24 27 26 26 26 26 25 24 23 21 19 18 15 10 9 9 8 6 6 7 12 17 20 23 21 22 20 17
21 22 21 21 21 22 22 22 22 23 26 27 26 26 25 23 23 22 20 19 16 12 10 8 4 1 3 5 6 5 9 12 16 17 23 27 27 29

GFSNE_sfc_dewp_018.txt.gz
Dewpoint
40 40 41 42 44 47 47 45 42 37 37 38 41 45 48 50 51 52 54 55 56 56 56 56 56 57 58 58 59 59 59 59 59 59 61 60 60 61
27 37 38 41 43 44 39 39 39 39 36 35 37 40 42 44 47 48 49 51 54 56 56 56 56 56 56 57 57 58 58 58 58 60 60 60 60 60
28 30 39 39 32 33 33 37 36 34 35 35 37 37 30 36 43 47 48 49 50 53 55 56 55 55 55 55 56 57 58 58 58 59 59 59 59 60
26 31 29 27 29 29 32 31 32 34 37 35 32 32 33 38 39 39 41 44 48 51 53 53 54 55 55 55 55 55 55 56 57 57 58 58 58 60
28 25 21 20 19 25 27 28 30 32 36 34 31 32 34 35 37 38 39 42 45 47 50 52 53 53 54 55 55 54 54 54 55 55 56 57 57 59
25 21 19 19 23 26 25 27 29 33 32 31 32 31 31 33 35 35 35 38 39 41 45 47 50 52 53 53 54 53 53 54 55 55 55 55 55 57
21 21 22 26 29 28 27 29 30 30 29 29 30 31 29 28 29 31 33 35 36 39 41 43 45 48 49 50 50 50 52 53 53 54 55 55 55 56
22 22 23 26 27 32 32 32 30 27 27 28 28 28 27 27 30 30 33 33 33 38 39 40 42 45 47 49 49 50 51 52 52 53 54 54 53 52
23 23 23 24 28 28 30 31 30 31 31 29 28 28 29 31 31 31 35 35 35 36 38 37 40 40 43 47 49 49 50 51 52 52 52 51 49 49
24 25 25 28 29 27 25 28 31 31 28 28 31 32 33 34 36 36 34 36 38 38 39 37 39 39 43 44 45 47 48 49 49 51 49 47 47 45
25 25 29 26 28 30 31 30 27 27 30 31 33 34 35 36 35 34 34 33 33 36 40 39 39 40 34 35 39 43 46 49 48 47 46 45 44 43
25 30 28 25 30 31 24 24 26 23 25 29 32 31 31 31 33 32 34 32 32 31 38 39 39 34 33 31 34 38 46 47 46 45 44 43 42 39
29 22 22 29 35 27 27 24 24 25 30 29 27 28 29 30 32 33 35 34 31 30 33 36 35 32 31 28 29 31 40 43 42 42 42 42 41 38
22 22 25 33 26 26 25 27 28 27 25 26 26 27 28 29 30 31 33 33 31 29 29 30 32 32 28 26 27 28 31 32 36 36 37 40 41 40
23 29 29 26 25 23 25 26 25 22 24 26 26 26 27 30 30 30 31 31 29 27 27 28 31 29 29 27 24 24 27 27 32 32 35 37 37 36
31 26 24 23 24 23 21 21 21 22 25 26 25 26 27 29 27 29 28 28 26 26 27 27 26 28 25 26 27 25 26 25 27 29 28 27 28 31
21 19 18 18 18 18 19 19 20 22 24 24 24 24 24 28 27 29 27 27 24 23 23 25 26 26 26 26 23 24 23 24 25 24 25 23 24 21
18 18 19 18 18 19 19 19 20 22 23 24 23 24 25 26 26 28 27 25 23 23 22 22 21 22 22 24 26 21 21 21 22 22 21 19 17 18
17 21 19 18 19 19 19 20 20 22 24 23 23 24 27 26 27 26 26 24 22 21 19 18 17 17 17 15 19 23 18 18 18 18 18 16 15 17
19 20 18 19 19 20 20 20 21 22 22 23 24 26 26 26 26 25 24 22 21 20 19 17 17 14 14 14 16 18 21 17 17 17 18 19 19 22
18 19 19 20 20 20 20 21 22 22 23 22 23 26 26 26 25 25 25 24 22 20 17 15 12 18 5 10 15 13 16 23 20 17 17 16 16 19
19 19 20 20 20 20 20 21 21 21 21 22 25 25 25 25 24 23 22 21 19 18 14 10 10 7 8 11 8 9 14 17 21 21 20 22 19 16
20 20 20 20 20 20 21 21 21 21 22 23 26 24 23 23 22 21 19 18 16 15 14 14 12 10 6 7 9 10 11 14 19 21 24 25 29 33

GFSNE_sfc_dewp_021.txt.gz
Dewpoint
28 28 32 35 40 40 39 35 34 30 31 32 30 30 33 38 42 38 36 40 48 51 52 53 53 55 56 57 58 59 60 60 61 61 61 61 61 61
22 26 31 33 33 34 34 31 32 34 32 28 26 27 33 36 37 35 34 45 42 42 44 48 51 53 54 55 56 57 57 58 59 60 60 61 61 60
24 26 30 26 26 25 25 28 31 29 28 27 30 29 35 34 33 34 36 35 38 44 44 48 49 50 51 53 54 55 56 57 58 58 60 60 61 60
22 27 25 20 21 21 21 25 28 28 31 30 28 35 30 31 33 34 34 35 37 40 42 46 44 46 49 52 53 53 54 55 56 57 58 59 60 60
22 23 22 21 21 23 25 27 29 28 31 32 30 29 29 30 31 32 32 34 34 39 39 41 42 44 46 47 49 51 52 54 54 55 55 56 57 58
23 23 21 22 22 25 25 28 28 30 30 30 30 29 28 29 31 29 28 32 32 32 35 37 39 42 45 46 48 49 51 52 54 54 54 54 54 55
23 22 23 26 29 28 26 28 29 29 31 29 28 28 28 29 28 28 29 29 30 32 33 35 37 40 44 42 43 47 50 51 51 52 53 54 54 54
23 23 23 27 27 30 32 31 29 27 28 30 29 27 27 26 28 30 30 31 30 35 35 37 37 37 39 41 42 44 45 49 50 51 52 52 52 52
22 23 24 24 28 30 30 30 32 35 30 27 27 29 30 28 29 33 32 32 33 36 36 32 36 36 39 39 42 43 44 47 48 49 49 50 51 52
22 23 24 27 28 25 25 32 29 24 25 26 27 26 28 31 32 34 34 34 33 34 35 33 35 36 39 41 42 44 45 46 47 47 48 49 50 50
22 23 27 24 26 29 33 29 23 24 26 27 29 31 31 32 31 30 31 31 30 30 33 34 35 35 37 40 42 43 43 44 45 46 48 48 49 49
25 26 26 23 27 34 24 22 24 23 25 26 27 27 28 29 30 31 32 30 30 28 34 32 32 32 33 35 35 36 37 41 42 44 48 48 45 43
28 22 21 27 36 27 26 22 23 24 25 24 24 24 26 27 28 30 33 32 30 29 31 32 31 31 32 34 33 35 34 41 45 46 46 44 43 41
22 21 25 31 25 25 24 26 26 25 22 22 23 24 25 26 28 30 29 33 33 31 34 31 28 29 30 31 31 31 31 36 42 41 40 41 41 40
22 28 26 23 23 22 23 24 24 21 22 23 23 24 25 27 28 28 30 32 32 32 31 29 28 28 29 31 29 28 30 30 36 37 37 35 35 36
31 20 21 21 23 21 20 20 20 21 22 23 24 25 26 25 25 27 30 30 29 29 29 29 28 29 30 32 31 30 29 29 32 32 31 35 36 36
20 18 16 17 18 17 18 19 20 20 22 23 23 23 24 24 25 30 29 29 27 25 25 26 28 29 29 30 26 28 28 28 30 30 29 27 29 34
18 16 16 19 18 17 18 19 20 21 22 23 23 23 24 25 27 29 29 26 24 23 22 22 22 24 26 26 29 25 25 25 27 29 29 26 24 28
16 18 18 18 18 19 19 20 21 22 23 23 23 23 24 26 27 27 26 25 23 22 20 20 19 20 22 18 23 28 23 24 25 24 26 26 25 25
18 19 19 19 19 19 20 21 21 22 22 23 23 23 26 26 27 26 25 23 22 21 20 19 19 17 19 19 19 21 22 24 23 21 20 20 20 24
19 19 19 19 19 20 20 21 21 21 22 22 22 25 26 26 25 25 23 23 22 20 18 17 16 19 16 18 18 18 23 23 20 20 19 18 16 17
18 19 19 20 20 20 21 21 21 21 21 22 23 26 25 25 22 21 18 18 17 18 18 18 18 20 21 19 16 17 20 22 22 22 24 22 22 19
20 20 20 20 20 21 21 21 21 21 22 22 24 25 24 21 19 18 18 22 22 21 20 21 20 20 18 20 20 20 20 22 22 23 26 30 32 28

GFSNE_sfc_dewp_024.txt.gz
Dewpoint
21 22 23 24 30 29 28 26 27 24 22 22 23 23 20 22 29 27 33 39 38 38 39 42 42 45 47 49 51 53 55 56 57 57 58 59 60 62
18 20 22 23 27 25 23 21 20 21 23 25 25 24 25 24 30 35 32 36 37 37 38 41 42 42 45 48 49 50 53 54 55 55 57 58 59 58
19 20 22 23 23 21 21 20 21 22 25 25 26 27 26 27 27 26 28 26 29 34 36 37 38 40 44 46 45 47 50 52 53 54 55 57 58 58
19 20 20 18 21 20 20 21 23 24 26 27 27 26 27 26 27 26 24 23 27 30 33 35 36 38 39 42 44 46 46 48 51 53 54 55 57 58
19 20 20 20 19 21 21 23 24 23 28 29 27 27 27 27 26 26 26 27 24 31 31 32 34 36 37 39 41 43 45 47 50 51 53 54 55 56
21 21 20 20 20 22 22 23 25 29 28 27 28 27 27 28 27 27 27 27 27 26 30 32 35 36 37 38 40 42 44 43 48 50 52 52 53 55
21 19 20 23 27 27 24 27 28 28 28 28 28 29 26 24 25 26 27 27 27 29 31 32 32 35 36 38 39 39 41 43 45 45 50 52 52 53
19 19 19 23 23 29 30 29 27 26 30 32 29 26 22 24 27 26 27 27 27 29 29 31 35 35 35 35 38 41 41 42 43 44 45 48 51 52
19 18 18 17 25 25 27 28 28 32 32 26 24 24 26 25 26 28 29 31 32 31 32 29 31 33 35 34 38 39 41 42 43 44 45 48 49 49
19 19 19 22 25 23 23 27 33 26 24 22 24 25 27 29 31 31 31 31 31 32 32 31 34 33 35 35 37 38 40 43 44 44 45 47 47 47
18 19 24 22 24 27 29 29 23 23 23 25 28 28 28 29 29 27 30 29 27 28 31 32 32 33 35 35 36 36 40 42 44 44 45 46 46 47
21 23 25 22 26 30 25 22 24 21 23 26 24 24 25 25 27 27 31 28 28 27 30 31 31 31 29 34 38 37 37 39 41 42 43 44 45 46
26 22 20 26 30 26 25 21 21 22 24 23 22 23 24 25 26 28 29 29 27 28 29 31 31 31 31 30 31 35 37 38 38 40 43 45 46 45
22 21 23 30 24 24 23 24 25 24 22 22 23 23 24 25 26 28 28 29 30 30 31 33 30 30 29 27 27 33 37 35 35 40 42 46 45 44
21 26 28 23 23 21 23 23 23 20 22 23 23 24 25 26 27 28 29 30 31 32 33 32 30 28 28 27 27 32 34 32 36 35 35 37 38 39
28 27 21 21 21 20 19 19 19 21 23 24 24 25 25 26 26 28 28 28 30 30 32 31 30 29 27 28 29 32 32 30 32 34 33 33 34 34
25 18 16 15 16 17 18 19 20 21 24 24 24 23 24 25 25 27 28 29 27 26 26 28 29 29 30 31 31 33 31 30 32 32 32 31 32 33
18 15 15 18 18 17 17 18 21 23 23 23 23 23 24 23 25 29 29 27 25 24 23 23 23 24 29 28 31 29 29 29 31 32 33 30 31 32
15 17 18 19 18 19 19 21 21 22 24 23 23 23 23 26 27 27 27 25 23 22 22 22 22 24 24 21 25 30 27 29 29 30 31 28 28 32
18 19 19 19 19 20 21 22 22 22 22 23 23 23 25 26 25 25 25 24 23 22 21 22 20 19 21 21 21 25 30 28 26 26 26 27 29 36
18 19 19 19 20 21 22 22 22 22 23 22 23 24 26 25 24 23 21 21 21 20 20 21 21 20 21 22 23 22 26 30 29 26 27 25 24 26
18 19 19 20 20 22 22 22 21 21 22 23 24 25 26 24 22 21 23 24 24 24 24 26 25 25 24 21 20 21 21 26 28 27 28 26 23 20
19 20 20 21 22 22 22 21 21 22 23 24 25 26 25 24 24 21 22 24 25 25 24 25 25 24 23 23 22 21 23 22 24 27 28 32 28 26

GFSNE_sfc_dewp_027.txt.gz
Dewpoint
21 23 22 23 26 25 29 28 26 21 19 19 19 22 26 25 28 27 25 35 35 36 37 36 36 37 39 41 43 43 43 45 47 50 52 54 55 57
18 20 21 22 23 25 27 25 24 22 20 21 21 23 25 25 28 28 26 35 32 34 34 35 37 36 37 38 39 40 41 44 46 47 50 52 54 55
19 20 21 21 22 22 24 23 23 23 22 22 23 25 26 26 25 27 28 26 27 32 33 33 34 34 34 35 37 38 40 42 43 45 48 51 53 54
18 20 20 18 22 22 22 22 23 23 23 23 24 26 25 24 25 26 26 24 26 30 32 32 33 33 34 34 35 37 38 39 41 44 45 48 50 53
19 20 20 21 20 22 22 22 23 23 27 27 25 25 25 26 26 27 25 23 22 30 31 31 32 33 35 35 36 37 39 39 40 42 45 46 49 50
21 22 21 20 20 21 22 23 26 27 28 27 26 26 27 27 28 24 21 24 25 25 26 28 31 32 33 35 35 38 40 41 40 39 44 45 48 51
21 20 20 24 26 25 21 25 25 29 26 26 26 28 30 25 23 22 23 23 24 24 25 26 28 31 32 34 34 38 38 38 39 40 39 41 44 45
20 19 19 23 22 26 28 29 27 23 24 29 30 29 23 20 22 22 23 23 23 26 28 28 28 27 28 30 33 35 36 36 37 38 39 40 44 45
19 19 18 17 24 24 28 28 28 30 33 23 23 22 22 21 22 25 27 28 26 26 28 26 29 29 31 31 34 33 34 36 37 37 40 43 44 45
19 19 19 21 25 24 22 28 30 27 23 21 21 20 23 26 28 27 28 28 27 27 28 26 28 30 28 31 34 35 36 35 37 38 39 42 44 45
19 20 22 22 25 27 27 30 23 21 23 25 26 27 27 28 26 24 26 25 23 24 27 25 27 28 30 31 29 33 35 40 40 41 42 43 45 46
22 25 26 23 27 30 25 20 21 19 23 23 21 22 23 23 26 24 26 25 24 23 25 25 26 27 25 29 32 32 32 33 35 39 39 42 43 42
27 23 22 26 31 28 25 19 19 22 22 20 20 21 22 23 24 25 26 26 25 24 26 26 27 27 27 27 28 30 30 32 36 36 38 39 41 42
23 22 21 32 25 24 22 23 24 23 19 21 22 22 22 23 24 25 26 27 28 28 29 29 27 27 26 26 24 27 29 32 35 34 37 42 44 44
21 24 31 24 23 20 22 23 23 18 21 23 22 22 23 25 26 26 27 27 29 29 31 31 30 28 26 24 23 24 27 32 33 34 36 37 40 42
28 28 21 21 21 20 19 19 18 20 23 23 23 23 24 24 24 26 26 27 28 28 29 31 30 28 25 27 27 25 29 29 32 32 33 33 36 38
22 19 15 15 15 16 17 17 19 22 23 23 22 22 22 23 24 25 29 28 26 24 23 25 27 27 27 28 29 31 31 31 32 32 33 32 32 36
18 15 15 17 17 16 17 19 21 22 22 22 22 22 22 23 24 26 26 25 24 23 23 23 23 23 27 29 31 29 30 30 32 32 33 31 31 34
15 17 17 18 18 18 20 21 21 21 23 22 22 22 22 23 24 23 23 23 22 23 24 23 21 20 23 20 26 32 28 30 30 30 32 32 31 33
18 18 18 18 18 20 21 21 21 21 21 22 22 22 23 24 24 24 23 24 25 23 23 23 20 20 19 20 22 26 32 29 28 28 30 32 33 38
18 19 19 18 20 22 22 22 21 21 22 21 23 23 24 25 24 24 24 26 27 25 23 23 23 24 22 25 23 24 28 33 32 29 27 27 29 30
18 18 18 20 22 22 22 21 21 21 21 22 23 24 25 24 24 24 24 24 26 26 26 27 25 25 23 23 22 24 26 29 32 34 31 29 27 26
18 19 20 21 22 22 21 21 20 21 22 23 24 26 23 24 25 26 26 26 27 27 26 26 25 24 23 22 22 23 25 27 28 28 28 27 31 33

GFSNE_sfc_dewp_030.txt.gz
Dewpoint
19 21 21 22 24 25 25 24 23 21 20 20 19 20 22 23 26 25 24 31 33 33 35 34 35 35 36 36 36 38 39 39 41 42 43 44 49 50
16 17 18 21 22 23 25 24 23 22 19 20 21 21 22 22 26 24 24 32 32 33 34 34 34 34 34 34 36 37 37 37 38 40 42 44 44 47
15 17 19 20 21 22 23 23 22 22 21 21 21 21 24 24 23 23 25 24 26 32 34 33 31 32 33 34 35 35 34 36 37 39 40 43 44 46
17 19 19 19 20 21 22 20 22 22 21 21 24 25 24 24 24 24 24 25 26 30 31 31 31 32 33 33 32 33 34 37 37 38 38 39 41 42
20 21 21 21 20 21 20 21 21 21 26 27 24 25 25 24 24 25 30 26 22 27 28 30 31 31 31 32 33 34 35 35 36 37 39 40 41 43
22 22 22 21 20 20 20 20 22 25 24 24 27 28 24 26 31 27 22 22 21 20 25 27 30 31 32 33 33 34 34 34 35 36 39 39 42 42
22 22 22 24 27 24 20 22 23 23 28 30 25 24 28 21 21 22 20 20 20 22 23 24 25 26 27 30 30 32 33 34 35 36 37 39 43 42
22 21 20 23 23 27 28 28 27 26 26 27 28 22 18 18 22 20 20 21 22 25 25 25 25 25 26 27 31 32 36 34 40 38 37 36 38 39
21 20 19 18 23 22 27 29 33 32 30 25 20 19 20 22 21 23 26 27 26 25 25 23 24 24 26 27 30 32 33 34 36 35 37 38 39 39
21 21 20 21 23 25 24 28 29 30 24 21 19 20 23 24 25 25 25 24 24 24 24 23 25 26 23 25 30 31 31 32 33 34 36 35 36 40
21 22 23 24 27 28 25 30 24 23 23 25 28 28 26 26 25 22 24 24 21 21 23 23 23 24 25 25 26 30 32 38 37 37 37 38 38 41
22 25 28 24 26 30 26 21 22 17 21 24 19 19 22 22 26 24 25 22 22 20 22 22 23 24 22 25 28 30 28 31 31 31 33 38 41 41
26 23 23 26 31 29 25 18 18 22 22 18 18 20 21 21 22 24 26 25 22 22 24 25 25 25 25 24 26 28 31 28 29 29 32 36 38 39
22 20 21 29 25 24 22 24 25 23 17 19 21 21 21 23 23 24 25 27 27 27 28 28 26 26 25 23 21 25 26 27 28 29 34 37 40 40
21 25 30 24 22 20 22 23 23 17 22 22 21 21 23 24 25 25 26 26 27 29 30 28 27 25 24 23 22 23 25 27 30 32 32 35 37 39
28 27 21 20 21 20 18 18 18 21 23 23 22 22 23 23 23 25 24 26 25 26 28 27 27 24 21 23 25 25 26 25 32 32 32 36 38 39
23 18 14 15 15 16 17 18 19 22 23 22 22 21 21 22 22 23 26 25 23 23 24 25 25 24 24 24 26 27 29 30 32 32 33 33 35 38
18 14 15 16 17 17 17 19 20 22 22 21 21 21 21 21 22 24 25 24 23 23 24 24 22 21 25 27 31 27 30 30 32 32 33 33 33 36
15 16 17 18 17 18 20 21 20 21 21 21 21 22 22 22 23 24 24 23 23 25 25 24 22 20 19 18 26 34 28 30 32 32 33 33 32 33
17 18 18 17 19 20 21 21 20 20 20 21 21 21 22 23 23 22 23 23 25 26 24 23 23 23 18 18 21 29 33 30 31 31 32 34 36 38
18 17 17 18 21 21 21 20 20 20 21 20 21 22 22 24 21 22 23 26 26 25 24 22 24 30 25 26 24 25 30 33 33 30 32 32 31 32
16 18 19 20 21 21 20 20 20 20 20 20 21 22 24 24 22 23 24 24 25 26 25 25 25 26 25 24 24 25 27 29 32 35 35 32 28 29
18 19 19 20 20 20 20 20 20 19 20 21 21 23 25 23 23 25 25 25 26 26 24 24 24 23 24 26 26 26 26 26 26 28 32 36 36 37

GFSNE_sfc_dewp_033.txt.gz
Dewpoint
18 20 20 19 23 25 25 23 23 20 19 20 20 20 23 22 24 23 24 30 32 33 33 34 34 35 36 37 37 37 36 37 37 39 40 40 41 41
17 18 18 20 21 22 25 25 23 22 20 20 20 20 20 21 26 24 23 30 31 33 33 33 34 34 36 36 34 34 35 36 37 38 39 41 40 40
18 18 20 20 22 22 23 23 24 22 20 20 20 21 22 24 22 24 26 24 24 31 34 36 34 32 32 32 33 34 34 37 38 38 38 41 42 42
19 21 21 21 22 22 22 22 21 21 21 20 22 25 25 23 24 26 23 25 27 32 33 31 31 30 31 31 32 33 32 33 33 34 36 36 38 41
21 22 21 22 22 22 21 21 21 21 25 27 26 23 23 29 25 24 28 23 22 26 28 28 29 30 31 32 32 32 32 33 36 36 37 38 38 39
23 22 22 23 22 21 20 21 23 23 22 22 24 28 24 24 29 19 17 19 21 20 24 26 29 29 31 31 31 30 31 32 33 34 34 34 35 36
21 22 22 24 27 25 21 21 21 23 28 29 25 24 27 19 18 19 19 21 21 21 21 23 25 26 25 28 28 29 30 32 33 34 35 36 36 36
21 21 22 24 24 27 28 28 27 24 27 28 28 22 19 19 20 19 21 24 22 25 24 22 23 22 23 24 29 30 31 33 35 32 38 35 36 38
21 21 21 20 24 23 28 29 30 32 31 27 22 21 21 20 22 27 26 24 23 23 23 21 22 22 23 24 29 29 30 30 30 33 34 35 37 36
21 21 21 23 26 24 23 24 29 30 25 22 21 21 24 26 23 22 26 26 25 22 22 21 22 21 21 22 28 29 30 31 32 34 34 34 35 34
20 21 25 23 26 27 27 29 25 24 21 25 29 27 25 26 25 25 23 22 19 19 21 21 22 22 23 23 23 29 30 31 33 37 37 37 38 37
25 26 26 22 26 32 24 22 19 17 23 25 17 18 21 22 27 24 25 21 20 19 21 22 23 23 21 24 25 26 27 30 30 31 32 32 33 32
25 22 20 26 34 26 24 17 18 23 24 17 17 19 22 23 23 25 26 24 21 21 23 26 25 25 24 23 25 26 27 27 28 29 30 31 32 33
22 20 22 30 24 23 21 24 25 25 18 19 21 21 21 22 23 24 25 26 26 26 27 29 26 25 22 19 19 23 25 26 27 28 28 31 33 34
23 27 27 23 22 20 22 24 24 19 22 22 21 21 22 23 24 24 25 25 25 27 28 29 28 26 24 20 19 22 25 26 29 29 30 31 32 34
27 22 20 20 21 20 19 19 19 22 22 22 21 22 23 23 23 24 23 23 24 24 26 27 29 26 22 21 22 22 26 27 29 32 32 33 34 36
21 16 14 15 15 16 17 18 19 20 22 21 21 21 21 22 22 23 24 24 23 23 23 26 26 25 24 22 21 25 28 30 32 32 32 34 36 37
17 14 15 17 17 16 17 18 19 20 20 21 20 20 21 20 21 23 23 23 23 23 25 24 24 21 24 26 30 28 29 29 32 32 33 33 32 38
15 17 17 17 17 18 19 20 19 20 21 20 20 21 20 21 21 22 21 22 23 26 25 24 23 21 19 18 23 34 28 30 33 32 32 32 32 35
18 17 17 17 19 19 19 19 19 19 19 20 21 20 21 20 21 21 21 23 25 24 24 23 24 24 20 20 18 28 33 31 30 32 32 33 35 37
17 17 17 19 20 20 19 19 19 19 21 20 19 20 21 21 22 21 22 25 26 24 22 22 24 31 28 27 25 26 30 35 35 32 33 32 32 32
16 18 18 19 19 19 19 19 19 19 19 19 20 20 21 22 24 23 22 23 24 25 23 22 25 27 27 25 25 25 27 32 35 36 36 35 33 30
19 19 19 19 19 19 18 18 18 18 19 20 20 21 21 23 26 24 24 25 25 24 20 21 23 25 26 27 26 25 26 29 31 31 32 37 36 36

GFSNE_sfc_dewp_036.txt.gz
Dewpoint
17 18 19 21 22 22 23 23 23 19 19 20 20 20 22 23 24 22 22 29 32 33 33 33 33 34 35 36 36 37 38 39 41 41 38 37 38 41
18 18 19 21 21 23 24 23 23 22 20 21 20 20 21 20 24 24 24 30 31 33 33 33 33 34 36 37 38 38 35 37 36 38 38 40 41 41
18 20 21 22 22 22 23 24 23 23 21 20 21 21 23 24 24 24 25 24 26 32 34 33 32 31 32 33 34 34 35 34 35 36 38 39 41 42
19 21 21 20 22 23 23 23 22 22 21 22 25 24 21 21 22 25 26 24 27 30 29 30 29 30 30 30 31 32 33 33 34 35 35 36 36 37
20 21 22 21 21 23 23 22 22 21 24 22 20 21 22 27 24 26 27 20 18 24 27 28 30 30 30 31 31 31 32 33 34 34 35 36 36 38
21 23 22 22 22 22 21 21 23 21 22 23 24 27 25 23 29 19 17 19 19 18 23 26 29 29 30 31 30 30 31 32 32 32 32 32 32 35
21 21 22 24 27 25 22 22 22 25 28 28 23 23 27 18 18 20 19 20 20 23 26 22 22 24 24 27 27 28 29 30 30 31 32 34 35 35
20 20 21 24 24 28 28 28 27 24 23 26 27 21 19 19 20 20 22 24 19 21 21 22 23 21 22 22 27 29 29 30 31 33 34 36 36 38
20 20 20 20 25 25 27 27 28 32 30 24 21 20 20 20 26 26 23 23 22 22 22 21 21 20 21 21 27 28 29 30 30 31 32 34 34 34
21 21 21 24 24 22 21 25 29 25 24 20 19 21 26 24 22 24 26 25 23 20 20 20 21 20 21 21 28 29 30 30 31 31 32 33 33 34
21 22 26 23 25 27 29 25 21 18 20 25 29 26 25 26 26 26 23 21 18 18 20 20 21 21 23 23 23 29 29 30 31 32 34 36 36 37
25 27 27 23 28 32 21 19 18 16 25 25 18 19 21 22 26 24 25 20 20 18 20 21 22 23 22 24 26 26 25 29 29 30 31 31 31 32
23 21 20 28 29 25 24 18 19 25 23 17 18 19 20 21 21 23 26 24 21 20 22 25 23 23 24 23 24 24 23 23 25 28 31 32 31 31
22 22 25 27 24 23 22 25 27 24 18 19 20 20 20 21 22 24 24 25 26 25 26 26 24 25 23 21 20 21 22 24 27 28 29 31 33 32
24 25 25 23 22 20 23 24 23 18 20 21 20 20 21 22 23 23 24 25 25 26 28 28 27 26 25 21 20 20 22 24 27 28 29 29 29 30
26 21 20 20 21 20 18 18 17 18 20 21 20 20 21 21 21 22 22 23 23 23 26 27 29 27 22 20 21 21 23 23 29 31 31 31 30 31
21 16 14 15 15 16 16 17 18 18 20 20 20 19 19 20 20 21 22 22 21 22 24 26 26 26 25 23 21 26 29 29 32 32 32 34 32 33
17 14 15 16 16 16 17 18 18 19 19 20 18 18 19 20 19 21 20 22 21 22 25 25 24 23 23 25 30 28 30 30 32 32 34 34 34 36
15 16 17 16 17 18 18 18 17 18 19 18 18 19 20 19 20 19 20 21 21 25 25 25 24 23 20 20 24 32 30 32 32 32 32 33 32 35
17 17 17 17 18 18 18 18 18 18 17 17 20 18 19 19 19 19 22 21 24 24 23 24 24 25 23 21 21 25 34 32 32 32 32 34 34 36
16 16 17 18 18 19 18 18 18 18 20 19 18 19 19 19 19 20 23 25 26 23 22 23 25 32 29 29 25 27 32 34 34 32 32 32 31 32
16 17 18 18 18 18 18 18 17 17 17 18 18 19 20 20 21 21 24 23 23 23 21 23 27 27 26 25 24 27 30 32 35 35 36 35 32 28
18 18 18 18 18 18 18 17 17 17 18 19 19 20 21 21 21 23 25 24 24 24 16 21 25 26 26 26 26 28 29 30 31 31 32 36 36 36

GFSNE_sfc_dewp_039.txt.gz
Dewpoint
16 18 19 21 23 23 23 23 22 19 18 19 20 21 22 22 24 22 22 29 32 33 34 33 33 34 35 37 37 38 39 39 40 40 41 41 43 43
17 18 19 22 22 24 25 24 23 22 20 20 21 21 21 22 25 24 24 30 32 32 33 32 32 32 32 34 34 34 37 35 38 41 42 41 42 42
17 19 20 22 23 22 23 24 24 23 21 21 21 22 23 20 20 22 23 23 24 32 34 33 31 30 31 31 32 33 34 36 37 38 39 40 40 40
18 19 20 19 22 22 23 22 23 23 22 23 25 21 20 21 22 23 26 27 30 30 30 29 30 30 30 31 32 34 34 33 33 34 35 36 37 39
19 20 20 21 21 22 22 22 23 23 26 23 21 22 23 25 25 27 26 20 18 24 27 28 29 30 30 31 32 32 34 34 34 34 35 36 37 37
20 21 21 22 22 22 21 22 24 21 22 23 24 25 24 27 25 19 17 19 19 19 24 27 29 30 30 30 29 29 29 30 31 32 33 33 34 36
20 20 21 24 26 25 22 21 22 24 25 25 26 24 20 17 17 18 18 20 23 24 21 21 21 21 22 26 26 28 29 30 30 31 31 32 33 34
20 20 21 24 24 28 28 28 26 23 26 27 24 19 17 17 19 20 25 21 19 22 21 23 23 21 21 21 27 29 29 30 31 32 34 34 34 35
21 21 21 20 25 25 27 28 31 32 28 22 19 18 18 20 27 24 23 23 22 22 23 22 21 19 20 19 27 28 30 31 31 32 32 33 34 34
21 21 21 22 26 23 24 31 24 22 20 18 19 22 28 23 22 24 26 25 24 20 20 20 20 19 20 21 27 28 29 30 31 32 32 32 32 34
21 22 26 23 25 28 27 23 19 18 20 26 30 26 25 26 26 26 23 21 18 17 19 19 20 21 22 22 22 29 29 30 30 32 31 31 32 34
26 25 26 23 27 30 21 19 19 17 25 25 18 19 22 22 26 23 24 20 19 18 19 21 21 22 20 22 24 25 25 29 29 30 31 31 31 29
20 22 21 28 28 25 25 19 20 25 23 17 18 19 20 20 20 22 23 23 20 20 22 24 23 22 22 22 23 24 25 24 25 26 29 31 32 33
23 22 23 27 25 24 22 25 26 24 17 18 19 20 19 20 21 22 23 23 24 24 26 26 24 23 23 21 20 22 24 26 27 26 27 30 34 34
23 24 25 24 23 20 23 24 23 17 19 20 19 19 19 21 21 21 22 22 23 25 26 26 26 26 26 23 21 22 24 25 27 27 28 28 28 29
24 21 21 20 21 20 18 17 17 18 20 20 19 19 20 19 19 20 20 21 21 21 25 27 29 28 24 24 24 22 24 25 30 31 32 31 30 29
21 17 14 15 15 15 16 16 17 17 19 18 18 18 18 18 18 19 20 21 19 21 22 25 27 27 27 26 23 25 29 31 32 32 32 31 29 29
18 14 15 16 16 15 16 17 17 18 18 19 18 17 17 18 18 19 19 20 20 21 23 25 25 24 24 25 30 28 30 32 32 32 33 33 31 32
15 16 16 16 16 17 17 18 17 17 18 17 17 17 19 17 18 17 18 20 20 22 24 26 24 23 22 20 25 30 29 31 32 32 32 32 32 34
16 16 16 17 17 18 18 18 18 17 16 16 18 18 17 18 17 17 18 20 23 24 22 24 24 24 24 23 24 27 34 31 31 31 32 33 34 35
16 16 16 17 18 18 18 17 17 17 19 18 17 17 18 19 17 18 19 23 25 22 21 22 25 32 28 28 26 28 32 34 34 32 32 32 31 30
16 17 17 17 18 17 17 17 17 17 17 17 17 18 18 19 19 20 21 21 23 23 22 23 26 27 24 25 25 27 29 32 35 36 36 35 32 28
17 17 17 17 17 17 17 16 16 17 18 18 18 18 19 19 21 22 23 25 24 24 14 20 24 26 26 26 27 27 28 29 31 31 32 36 36 36

GFSNE_sfc_dewp_042.txt.gz
Dewpoint
16 17 18 21 23 23 24 23 21 18 16 17 19 20 22 22 24 23 22 29 32 33 33 33 33 34 35 36 37 38 38 37 39 40 40 41 42 43
17 17 18 21 22 23 24 24 24 22 20 20 20 21 21 22 25 22 21 28 30 32 33 32 32 33 34 34 34 34 34 36 38 39 39 40 41 42
17 18 19 20 22 23 24 23 23 23 21 21 21 22 23 21 21 22 24 23 24 32 32 32 32 31 31 32 33 35 35 36 36 38 39 39 39 40
18 19 19 19 20 22 22 22 23 23 22 23 24 21 21 22 23 25 27 27 26 29 30 29 30 31 31 32 33 35 36 36 35 36 36 37 38 39
20 20 20 20 21 22 22 22 23 23 26 22 20 22 23 25 27 23 20 18 17 24 28 29 30 31 31 32 32 33 33 34 33 34 34 35 37 37
20 21 21 21 21 22 22 22 22 21 22 23 23 26 27 21 20 17 16 18 19 19 25 28 29 29 30 30 30 29 29 30 31 31 32 32 33 34
21 21 21 24 27 26 23 22 22 23 24 28 25 21 20 18 17 18 18 20 24 22 21 21 21 22 23 27 27 29 29 30 30 31 31 32 32 34
21 21 21 24 24 28 28 28 27 28 27 23 22 19 17 17 18 21 24 21 20 21 21 22 22 21 21 21 27 28 29 30 31 32 32 34 34 34
21 21 21 21 25 23 28 29 32 30 26 21 18 17 18 21 27 24 23 23 22 22 22 20 20 19 20 19 27 28 29 30 31 32 32 33 33 34
21 21 21 22 25 24 24 31 25 22 20 19 20 22 28 23 22 23 26 25 23 20 19 18 19 19 20 20 27 29 29 30 30 31 32 32 33 33
21 22 24 23 25 28 28 23 20 19 21 26 30 27 26 27 26 25 22 21 18 17 18 18 20 20 21 22 22 28 28 29 30 31 32 32 32 34
22 22 26 23 27 30 21 20 19 18 25 25 17 18 21 21 25 21 22 19 18 17 18 21 21 22 20 21 23 23 23 28 30 31 33 34 33 29
20 21 22 27 28 26 25 19 20 24 22 16 17 18 19 19 19 20 22 22 19 18 21 24 22 21 22 21 22 25 25 26 27 28 31 33 35 34
22 22 22 26 25 24 22 25 26 24 16 17 18 19 19 19 20 21 21 22 22 22 23 24 22 23 22 21 21 24 26 28 29 28 28 31 34 35
22 24 26 24 23 20 22 24 23 16 18 19 19 18 19 19 20 19 20 20 21 21 24 24 26 25 25 24 23 24 26 26 28 28 29 29 28 28
24 21 22 20 21 20 18 17 16 17 19 20 19 18 19 18 18 18 19 19 20 19 24 26 28 29 25 25 25 24 26 26 31 33 32 33 30 30
22 17 14 15 15 15 15 16 16 17 19 18 18 18 17 17 17 18 19 19 18 19 21 24 27 27 27 26 25 26 29 30 32 32 32 31 29 29
18 14 15 15 15 15 15 16 16 18 18 18 17 17 16 16 18 18 18 18 18 19 20 25 25 25 24 26 30 29 30 30 32 33 33 31 31 30
15 15 16 15 16 16 16 17 16 17 18 18 16 16 18 18 17 17 17 18 18 19 23 24 25 24 21 21 26 30 30 31 32 32 32 32 32 32
16 16 16 16 16 16 17 17 17 17 17 16 18 18 17 17 16 16 17 18 20 23 22 23 24 24 25 23 24 28 34 31 31 31 31 33 34 37
15 16 16 16 16 17 17 17 17 17 19 18 16 17 17 18 16 17 18 23 24 21 21 22 25 31 28 28 25 27 31 33 34 32 32 31 30 30
15 16 16 16 17 17 16 16 16 16 16 17 17 17 18 18 18 19 20 21 21 23 22 22 25 26 26 25 25 27 29 30 32 34 35 35 30 27
16 16 16 16 16 16 16 16 15 15 16 17 17 17 19 19 20 21 22 23 25 23 16 18 23 24 25 26 27 26 26 29 30 30 32 36 37 36

GFSNE_sfc_dewp_045.txt.gz
Dewpoint
18 19 19 20 22 22 22 22 20 17 17 15 16 18 21 22 23 22 22 29 32 33 33 33 33 33 34 35 36 36 38 38 38 39 40 40 40 41
19 19 19 21 21 22 23 22 22 21 19 19 20 21 21 21 25 22 22 28 31 32 32 32 32 33 34 35 35 35 36 37 37 38 39 39 40 41
20 20 20 21 21 21 22 22 22 21 21 21 22 22 21 21 21 23 25 24 25 30 31 31 32 32 32 33 34 35 35 36 37 38 39 39 39 40
20 21 21 19 20 20 21 21 22 22 23 23 23 22 20 22 23 25 21 18 19 24 29 30 31 31 32 32 33 34 34 35 35 36 37 37 39 39
21 21 21 20 19 20 22 23 23 22 25 23 21 23 24 27 22 20 18 19 18 25 27 29 30 31 32 32 32 32 32 33 33 34 34 35 36 37
22 22 21 21 21 22 23 23 23 22 23 24 25 28 24 22 23 20 19 20 21 21 25 27 29 29 30 31 31 30 31 31 32 32 33 33 33 34
22 21 21 24 28 27 24 23 22 25 27 29 25 22 23 19 18 19 20 22 23 22 22 22 22 23 25 28 27 28 29 30 31 32 33 34 33 34
21 21 21 25 25 28 28 28 27 27 31 27 25 20 18 18 20 23 26 22 21 22 21 22 24 22 22 23 27 29 30 31 31 32 33 34 36 36
21 21 21 21 25 24 27 29 31 31 28 24 20 19 20 21 28 26 25 24 24 24 23 20 21 20 21 19 27 29 30 31 31 32 33 33 35 34
22 22 22 22 24 24 24 32 28 22 21 20 21 23 28 26 23 24 27 26 24 21 20 21 21 20 21 22 27 29 30 30 31 32 33 33 33 33
22 22 22 22 26 27 29 27 20 19 21 26 29 28 26 26 26 26 24 22 19 18 20 19 21 22 23 23 24 27 28 29 31 34 35 35 35 34
22 20 24 24 27 30 23 21 20 17 26 26 17 18 20 20 25 21 24 21 20 19 19 22 23 23 21 22 25 26 25 28 31 33 35 37 37 35
21 21 21 26 29 26 25 19 20 25 23 16 16 18 19 19 19 21 23 24 21 20 21 24 24 23 23 23 25 27 27 27 29 30 32 33 36 36
21 22 22 27 25 24 23 25 26 24 16 17 18 20 21 22 23 23 23 24 24 23 24 24 23 23 23 22 23 28 29 30 32 31 32 33 34 37
23 24 26 25 23 20 22 24 23 16 17 20 21 21 22 23 23 23 24 23 23 24 25 25 25 26 26 25 26 27 28 30 32 32 34 33 33 32
24 22 22 21 21 20 17 17 15 17 20 21 21 21 22 22 21 22 21 22 22 22 25 27 29 29 28 28 28 27 29 29 33 34 33 33 34 32
22 18 14 14 14 14 14 15 16 16 20 20 20 20 20 20 20 21 22 22 20 21 22 25 28 30 29 29 28 30 31 32 33 33 33 32 33 32
18 13 13 14 14 14 15 16 16 19 19 20 19 19 19 19 20 21 21 21 20 21 22 25 27 26 27 30 30 32 32 31 32 33 33 31 32 30
14 14 15 15 16 16 17 18 18 19 20 19 19 19 20 21 19 20 20 21 21 22 25 27 26 27 24 23 28 29 30 31 31 32 33 32 32 32
15 15 16 16 17 18 18 19 19 18 19 19 20 21 19 20 19 19 20 20 22 25 25 26 27 27 26 26 26 29 32 32 31 31 31 33 34 35
15 15 16 17 17 18 18 18 18 18 20 20 19 19 20 20 19 20 21 23 24 24 24 25 27 30 30 31 28 28 31 34 33 32 32 31 30 31
15 16 16 17 18 18 18 18 18 18 18 18 19 20 20 21 20 21 22 23 23 25 25 27 27 29 29 28 27 28 30 31 32 32 34 35 31 27
16 17 17 17 18 18 18 17 17 17 18 18 19 20 20 21 22 23 24 24 25 26 26 25 26 28 27 27 27 27 28 29 30 30 33 35 36 36

GFSNE_sfc_dewp_048.txt.gz
Dewpoint
19 20 20 20 21 21 21 21 19 16 15 14 13 15 18 20 22 21 21 28 31 32 33 33 33 34 35 36 36 37 39 38 39 40 40 40 41 42
19 20 20 20 20 21 22 21 20 19 17 16 16 18 20 19 23 21 21 28 30 31 32 31 32 33 33 34 35 36 38 38 38 39 40 40 40 40
20 20 20 20 20 18 19 19 19 19 18 20 20 20 21 20 20 22 24 23 22 27 29 30 31 32 33 34 34 35 35 36 37 39 40 40 40 40
20 21 20 17 19 18 18 19 20 21 21 22 22 23 20 22 23 22 18 16 19 24 29 30 31 32 32 33 33 34 34 35 36 37 38 38 39 39
21 21 21 19 18 19 19 21 22 21 25 26 23 24 24 26 23 21 20 19 18 25 28 29 31 31 32 32 32 33 33 33 34 34 34 35 36 37
22 22 20 19 19 20 21 21 20 22 20 22 25 28 28 23 24 20 19 21 21 21 25 27 29 29 30 31 31 31 31 32 33 33 33 33 34 35
21 20 19 22 26 27 23 23 22 23 26 29 29 26 25 20 17 20 21 23 24 23 24 23 23 25 26 28 28 29 29 30 31 32 34 34 35 35
19 18 19 22 23 27 27 28 27 27 31 30 28 22 17 18 21 22 26 25 22 23 22 23 24 23 24 25 28 29 30 31 32 32 33 34 34 34
19 19 18 18 23 21 25 27 28 32 29 25 20 18 19 21 28 29 26 25 25 24 24 22 22 22 23 21 28 29 31 31 32 33 33 34 34 35
20 20 20 20 21 22 22 30 30 22 20 18 20 21 26 28 26 25 27 26 25 22 22 23 23 22 23 25 29 30 31 31 31 32 33 35 36 36
20 20 21 20 24 27 27 30 20 19 20 24 27 30 28 27 26 26 26 24 21 20 22 21 22 24 25 25 25 27 29 30 31 32 33 34 35 37
20 19 23 23 26 28 25 21 20 16 23 27 21 19 21 21 25 23 26 25 23 21 21 23 24 23 22 24 27 27 27 30 31 32 32 33 34 34
20 18 19 25 27 27 26 20 19 23 25 20 17 18 19 21 21 23 26 26 24 23 23 25 25 23 24 24 25 29 29 30 30 31 33 33 34 35
19 20 21 26 26 25 23 24 26 26 18 17 19 21 23 24 26 25 25 26 26 25 26 26 23 24 24 23 22 28 30 32 33 32 33 36 38 38
23 24 26 25 24 20 21 24 23 16 18 20 22 23 25 26 26 26 27 27 26 27 28 27 27 27 27 25 25 28 29 32 34 34 34 34 34 34
24 23 21 21 20 19 17 17 16 17 20 23 23 23 25 25 25 25 24 25 25 25 28 29 29 29 28 28 29 28 30 30 34 34 33 34 35 35
23 17 13 12 13 13 15 16 17 17 21 21 23 22 23 23 23 25 25 25 22 22 24 28 30 31 31 30 28 30 31 32 34 33 32 32 34 34
18 13 12 14 15 14 16 17 18 21 21 22 22 22 22 22 23 25 25 24 23 22 24 26 29 28 29 30 32 32 32 31 32 33 33 32 32 33
13 14 15 16 16 17 19 21 22 22 23 23 22 22 23 24 22 23 24 23 22 25 25 27 29 28 26 24 29 32 32 31 32 32 32 32 32 34
16 16 16 16 17 19 21 22 22 22 22 22 23 23 23 23 23 23 23 23 24 25 25 26 29 29 27 26 27 30 31 32 31 31 31 33 34 36
15 16 16 17 19 21 21 22 22 22 22 23 22 22 23 23 22 23 23 24 25 25 25 24 28 30 31 31 29 29 32 32 33 32 32 31 31 30
15 16 17 18 20 21 22 22 21 21 21 22 22 23 23 24 23 23 24 25 25 25 27 27 29 30 31 29 28 29 30 31 32 32 34 35 31 28
16 17 18 20 21 21 22 21 21 21 21 22 22 22 23 23 24 25 26 26 25 28 26 25 28 29 29 29 28 29 29 29 30 30 33 34 36 36

GFSNE_sfc_dewp_051.txt.gz
Dewpoint
21 23 22 23 24 24 24 23 22 18 18 18 17 18 19 21 23 21 21 28 31 32 33 33 34 34 34 35 36 37 37 38 39 40 41 41 41 42
20 20 21 22 22 24 24 23 22 20 18 18 19 20 21 20 24 22 21 28 30 31 32 31 31 32 33 34 35 36 37 38 38 39 41 42 42 41
20 21 21 21 22 21 21 21 21 21 19 20 22 22 21 22 22 22 26 23 24 28 30 31 31 32 33 34 34 35 37 37 38 39 40 40 42 41
20 21 21 18 21 20 20 20 21 21 22 21 22 23 23 22 23 25 24 19 20 25 29 31 32 32 32 33 33 33 34 34 35 36 38 39 39 40
21 21 21 21 19 20 21 21 23 21 23 22 22 22 23 25 28 23 21 22 19 26 28 30 31 32 32 32 32 33 32 33 34 34 34 35 36 37
22 22 21 21 19 20 22 23 22 23 23 23 23 26 28 27 24 22 20 22 22 21 27 27 30 30 31 31 31 31 31 32 33 33 33 33 34 35
21 20 20 24 25 25 23 24 24 24 26 27 27 29 25 21 19 20 20 22 23 26 23 23 23 23 25 28 28 29 30 31 32 33 34 34 34 35
20 19 19 23 22 26 27 27 25 25 30 30 29 24 22 19 20 22 24 25 23 24 23 23 24 23 24 24 28 30 31 32 32 33 34 35 35 36
19 19 19 18 23 21 24 26 27 29 29 25 22 19 19 20 25 26 27 25 24 24 23 23 23 22 23 22 29 30 31 32 33 33 33 35 35 35
19 20 20 20 22 22 23 27 28 27 23 20 21 21 24 26 30 28 25 25 24 23 23 22 22 21 23 24 29 30 31 32 32 32 33 34 34 35
20 19 21 21 24 26 25 27 25 21 23 24 26 28 29 28 26 24 25 24 22 20 22 21 23 23 23 23 24 27 29 30 32 33 33 34 35 36
21 21 24 22 26 27 24 22 22 20 22 24 24 22 22 22 26 23 27 25 23 21 21 23 24 23 20 22 24 24 25 29 31 32 33 34 34 32
22 20 20 25 27 27 27 22 21 23 24 22 19 19 20 21 23 24 26 26 23 22 23 24 24 22 22 21 22 24 25 26 28 29 34 34 35 35
20 21 23 26 27 26 24 24 25 25 19 18 20 20 22 23 25 24 24 26 26 25 26 26 23 23 22 21 20 24 26 27 30 30 32 37 37 36
22 24 26 26 24 21 21 23 22 17 18 21 22 23 24 25 25 26 26 26 26 25 26 25 26 26 26 24 23 24 26 28 30 32 33 33 33 34
25 24 23 22 19 18 17 17 17 18 21 23 23 23 24 24 23 24 24 24 24 23 24 25 28 28 27 27 27 27 28 27 31 33 33 32 33 35
23 20 16 13 14 15 16 17 18 18 21 23 23 23 21 22 22 23 24 24 23 22 23 25 27 28 29 30 28 28 28 30 31 32 32 32 32 34
19 15 13 15 16 16 16 17 19 21 22 24 22 22 22 22 22 23 23 23 23 23 24 25 26 27 26 28 30 29 29 30 31 32 32 31 30 32
14 15 16 17 18 18 19 20 20 21 23 23 23 22 22 22 21 21 22 22 22 23 24 26 26 25 23 22 25 30 29 29 31 31 30 31 31 32
17 17 17 18 18 19 20 21 21 21 21 21 22 22 22 21 21 20 21 22 23 24 25 25 26 25 25 25 25 28 31 31 32 30 29 31 33 34
16 17 17 18 19 20 21 21 21 21 22 23 21 22 22 22 21 21 22 24 25 25 24 24 27 29 29 29 27 26 28 31 32 32 31 31 30 31
16 17 18 19 20 21 22 21 21 21 21 21 21 22 22 23 22 22 22 23 24 25 26 28 27 27 28 27 26 26 27 29 31 32 33 34 31 28
18 18 19 19 21 21 21 21 20 20 21 21 21 22 23 22 23 24 24 25 25 27 28 25 25 27 26 27 27 27 27 28 29 29 30 33 36 36

GFSNE_sfc_dewp_054.txt.gz
Dewpoint
20 21 22 23 24 24 24 23 22 19 18 18 18 19 22 22 25 23 21 29 32 33 34 33 34 34 34 35 36 37 38 39 40 41 41 41 42 42
21 19 21 23 22 23 24 24 23 21 17 18 19 20 22 21 24 23 23 29 31 33 33 32 32 33 34 34 36 37 37 38 39 40 41 42 42 42
20 21 22 21 22 22 22 22 22 22 19 19 21 22 22 22 23 23 23 24 26 30 31 31 32 32 34 34 35 35 36 37 37 38 40 40 41 42
20 21 21 20 21 21 21 20 21 21 21 21 21 22 22 22 22 24 26 25 21 27 30 31 31 32 33 34 33 34 34 34 35 36 37 37 39 39
21 21 21 21 21 21 21 22 23 22 23 22 22 23 22 24 26 27 23 23 21 26 28 30 31 33 33 33 33 33 33 33 34 34 34 35 36 37
22 22 21 21 20 20 21 22 23 23 23 23 23 25 26 28 26 23 20 21 21 21 26 29 31 30 31 31 32 31 31 32 33 33 33 34 35 36
21 21 20 24 26 25 22 23 24 24 24 25 27 25 25 24 23 21 20 20 22 24 26 23 23 24 24 28 28 29 30 32 33 33 34 35 35 36
21 20 20 24 23 26 27 27 25 24 25 25 26 26 25 20 20 20 21 23 23 25 23 23 23 23 24 24 29 30 31 32 32 33 34 35 36 36
20 20 19 19 24 22 26 26 27 28 28 26 24 20 19 20 23 24 26 27 24 23 24 23 22 21 23 22 28 30 31 32 33 33 33 34 35 36
20 20 20 20 22 23 22 24 26 26 27 24 22 21 23 24 27 28 26 24 24 23 23 22 22 21 22 23 29 30 30 31 31 32 33 33 34 35
20 21 22 22 25 27 25 25 24 23 24 26 26 28 29 28 26 23 24 24 21 21 22 21 21 22 22 22 22 27 28 29 31 31 33 33 34 35
22 22 27 23 27 27 24 23 22 20 22 23 23 23 23 22 25 22 24 24 22 20 20 22 22 22 19 20 21 22 23 27 29 31 32 33 34 33
23 21 21 26 27 28 27 22 21 22 23 21 19 19 19 20 21 23 25 25 23 21 22 24 23 22 21 20 20 22 23 23 25 26 31 33 34 34
21 21 23 27 27 26 24 23 25 24 18 17 19 20 21 22 23 24 24 25 26 25 26 26 24 23 22 20 19 22 24 26 27 28 29 32 34 36
22 25 27 26 25 22 21 23 22 17 18 19 21 22 22 23 23 24 24 24 25 25 25 25 25 24 24 22 22 23 24 26 29 30 31 31 33 32
26 24 24 23 21 19 18 18 17 18 20 21 21 22 23 22 21 22 23 23 22 22 24 23 25 26 25 25 26 25 26 26 29 30 32 33 32 32
24 20 17 14 15 16 17 17 18 18 20 21 21 22 21 21 21 21 22 23 22 20 21 23 25 27 27 27 25 25 27 28 30 30 31 30 31 31
18 15 14 16 16 16 17 17 18 20 20 21 21 21 21 20 20 21 22 21 20 20 22 23 24 25 24 24 27 27 28 27 29 29 30 30 29 30
14 15 17 17 17 17 18 19 19 19 21 21 21 20 20 20 20 19 19 20 19 20 21 24 26 25 22 20 24 28 28 28 28 29 30 30 29 30
17 17 17 17 17 18 18 19 20 19 20 20 20 22 21 20 19 19 20 20 20 22 23 23 24 26 25 24 24 26 30 29 30 29 29 30 31 33
16 16 17 17 18 19 19 20 20 20 21 22 20 21 21 21 20 20 20 23 24 22 21 22 24 30 28 27 26 24 27 30 31 30 31 30 29 30
17 17 18 18 18 19 19 19 19 19 19 20 20 21 21 22 21 21 21 21 21 23 24 26 28 26 25 25 24 26 27 28 30 31 32 32 30 28
18 18 18 18 19 19 20 19 19 19 19 20 20 21 22 21 22 22 22 23 23 24 26 25 26 26 24 25 26 27 28 27 28 27 28 32 33 33

GFSNE_sfc_dewp_057.txt.gz
Dewpoint
21 21 23 24 24 24 24 24 21 19 17 19 18 19 21 23 25 24 23 29 32 33 34 34 35 34 35 35 37 37 39 40 40 41 41 42 42 43
22 19 21 23 22 23 23 23 23 21 18 18 19 20 22 22 25 23 23 29 30 33 34 33 33 33 34 35 35 37 37 38 39 41 42 42 42 42
19 21 21 21 22 22 22 22 21 21 20 20 21 22 22 22 23 23 24 23 26 32 31 32 32 33 33 34 34 36 36 37 38 39 40 41 42 41
19 21 21 20 21 21 21 20 21 21 21 20 22 22 23 23 23 23 25 27 25 28 30 31 31 32 33 34 34 34 34 34 35 35 36 37 38 39
21 21 21 22 21 22 20 21 22 22 23 23 22 24 24 25 26 26 28 25 23 26 28 30 31 33 33 33 33 33 33 33 34 34 34 35 36 37
22 22 22 21 21 20 20 21 22 23 23 23 23 24 26 24 25 26 23 22 21 20 24 29 31 31 31 32 32 31 31 32 33 33 34 35 36 37
22 21 21 24 26 25 22 23 23 23 23 24 24 24 25 24 23 22 20 21 21 23 24 25 24 24 24 28 28 29 30 32 32 33 35 36 36 36
22 22 21 24 24 26 26 27 26 24 24 25 25 24 23 21 21 21 21 22 22 25 23 23 24 23 23 23 28 30 31 31 32 32 34 35 36 36
20 20 19 19 24 22 26 28 27 28 28 25 24 23 22 21 23 23 26 27 25 24 24 23 23 22 22 22 28 29 31 31 32 32 33 33 34 35
20 20 21 21 23 24 23 25 26 25 26 25 24 23 23 25 28 26 25 24 23 22 22 21 21 20 21 22 28 29 30 30 30 31 32 32 33 34
22 22 24 23 27 28 25 25 24 24 25 27 27 28 29 28 26 23 22 22 19 20 21 21 20 21 21 21 22 27 27 28 29 30 31 32 33 34
22 23 27 24 27 28 25 24 22 20 21 23 23 21 21 21 25 22 22 22 21 20 20 21 21 22 20 21 21 21 22 26 28 30 30 32 33 31
23 22 21 27 28 28 27 22 20 22 22 17 17 18 19 20 22 23 24 24 22 21 22 24 23 22 22 20 21 22 22 22 23 25 29 31 32 33
22 22 23 28 27 26 23 23 25 24 17 17 19 19 21 22 22 23 23 24 24 24 24 24 23 23 21 20 18 21 23 24 25 26 27 30 33 34
23 25 27 26 23 21 22 23 23 17 18 19 20 20 21 22 23 23 23 22 22 23 24 23 23 23 23 21 20 21 23 24 26 27 27 29 29 31
26 24 23 20 20 20 19 18 17 18 20 20 21 21 22 22 21 21 21 21 20 19 23 23 21 22 22 23 24 23 24 24 26 27 29 30 30 32
22 19 15 15 16 16 16 17 17 18 20 20 20 20 20 20 20 20 20 20 20 19 19 21 22 23 24 24 23 24 24 25 26 28 28 28 29 29
16 14 14 16 16 16 16 17 18 20 19 20 19 19 19 19 19 20 21 20 18 18 19 20 20 21 22 23 27 24 25 25 26 28 29 28 28 29
14 15 16 16 17 17 17 18 18 19 19 20 19 19 20 20 21 19 19 19 19 18 19 20 23 23 19 18 22 27 27 27 26 27 28 29 29 29
16 16 16 17 17 17 18 18 18 18 18 18 20 21 20 20 19 19 19 19 19 20 22 21 21 23 22 22 24 25 28 27 28 27 28 29 30 31
16 17 17 17 18 18 18 18 18 18 20 20 18 19 19 20 19 19 19 23 24 21 19 20 22 28 28 28 24 22 24 28 30 30 30 29 27 27
17 17 18 18 18 18 18 18 18 18 18 18 18 19 20 21 20 21 21 21 21 21 22 23 25 26 26 25 23 22 24 27 29 31 31 31 29 26
17 18 18 18 18 18 18 18 17 18 18 18 19 19 20 21 22 22 23 23 23 23 25 25 25 26 25 25 26 26 25 25 26 27 28 32 33 33

GFSNE_sfc_dewp_060.txt.gz
Dewpoint
22 22 23 24 25 24 24 24 21 18 18 18 18 19 21 23 25 24 23 28 32 33 34 34 35 35 35 36 37 38 38 39 40 41 41 41 42 43
23 20 21 23 23 23 23 23 24 21 18 19 19 20 21 22 25 24 24 30 31 33 33 33 33 34 34 34 35 36 37 38 39 40 41 41 41 42
20 20 21 21 22 22 22 22 21 21 19 20 21 22 22 22 23 24 25 24 25 32 33 33 33 33 33 34 34 35 36 38 38 39 40 41 41 41
19 20 21 21 21 21 22 21 21 21 21 20 22 23 23 24 24 24 25 26 26 31 32 32 32 32 33 34 34 34 33 35 35 35 36 37 38 40
21 21 21 21 21 22 21 21 21 21 22 22 22 23 24 25 25 25 24 26 26 28 29 30 31 32 33 33 33 33 33 33 34 34 34 35 36 38
22 22 21 21 21 20 20 20 21 22 22 23 23 23 24 25 24 23 22 22 21 21 25 28 31 31 32 32 32 31 31 32 33 33 34 34 36 36
22 21 22 24 27 25 23 23 23 23 23 22 24 24 24 23 22 22 21 21 22 23 23 25 25 25 25 29 28 29 30 32 32 33 33 34 35 36
21 21 20 23 23 27 28 28 26 24 23 21 27 24 23 23 22 22 22 22 22 24 24 23 23 23 23 24 28 30 31 31 32 33 34 35 35 36
19 20 20 20 25 23 27 28 28 29 28 26 24 24 23 23 24 23 24 26 24 24 23 21 21 21 22 22 28 29 30 31 32 31 32 33 34 35
21 21 21 23 24 25 24 25 25 26 25 24 25 25 25 25 29 27 25 24 23 22 21 20 21 20 21 22 27 29 30 30 30 30 31 31 32 32
21 22 24 24 27 28 26 26 25 24 26 27 27 29 29 28 26 23 22 21 19 19 20 20 20 20 21 21 22 28 28 28 28 29 30 31 31 32
22 23 26 25 27 28 25 23 22 20 21 23 20 19 21 20 25 22 21 20 20 19 21 20 21 22 19 21 21 22 21 26 28 29 29 30 31 29
23 22 22 28 29 28 26 21 20 22 21 17 17 18 19 20 21 22 23 23 21 20 21 24 22 21 21 19 20 22 22 22 21 23 27 30 31 31
22 23 23 28 27 25 22 24 25 24 17 17 19 19 20 21 21 22 23 24 24 23 23 24 21 20 20 18 17 20 22 23 24 24 25 28 31 32
24 26 27 25 22 21 22 23 23 17 18 18 19 20 20 21 22 22 23 23 21 22 24 23 23 22 21 19 19 19 21 22 24 25 26 26 27 28
26 21 20 19 20 20 19 18 17 18 19 20 19 20 21 20 20 20 20 20 20 19 21 22 21 22 20 21 21 20 22 22 24 25 25 26 28 30
21 15 14 15 15 16 16 17 17 17 19 19 19 19 19 19 19 19 20 19 18 18 18 19 21 22 22 22 20 21 22 23 24 25 26 26 28 29
16 14 14 15 16 16 16 16 17 19 18 19 18 18 18 18 18 20 21 19 18 17 18 19 19 19 19 21 25 22 23 23 25 26 27 26 26 28
15 15 16 16 16 17 17 17 17 17 18 18 18 18 18 20 20 18 18 19 18 18 18 19 20 21 18 15 19 24 25 26 26 26 26 26 26 28
17 16 16 17 17 17 17 17 17 17 17 17 18 19 18 18 17 18 19 19 19 20 22 22 21 20 19 19 22 25 28 27 26 25 25 26 28 31
16 17 17 17 17 18 18 17 17 16 19 19 16 17 18 19 18 19 20 23 24 22 20 20 23 28 27 27 24 22 25 28 29 28 28 28 26 26
17 17 17 18 18 18 17 17 16 16 16 17 17 18 20 20 20 20 21 21 22 23 24 24 26 27 26 25 23 23 24 26 29 30 32 32 29 25
17 18 18 18 18 18 18 17 17 17 17 18 18 20 20 21 22 22 22 22 25 26 27 25 25 26 25 26 26 26 26 27 27 28 28 31 33 33

GFSNE_sfc_dewp_063.txt.gz
Dewpoint
24 24 25 25 25 24 24 23 20 16 17 18 18 19 21 23 25 25 24 29 33 33 34 35 35 35 36 36 36 37 38 38 39 41 41 41 42 43
25 22 23 24 23 24 24 24 23 20 18 20 19 20 21 22 25 25 25 30 31 32 33 33 34 35 35 35 35 36 37 38 39 40 41 42 42 42
22 21 22 22 23 23 23 23 22 22 20 19 20 21 21 23 23 24 26 24 25 31 33 33 34 34 34 34 34 35 36 37 38 39 40 40 41 41
21 21 21 21 22 21 22 21 21 21 21 19 20 22 22 23 24 24 24 25 25 29 32 33 32 33 33 33 34 34 35 36 35 36 37 37 38 38
24 22 22 22 21 22 21 21 21 20 22 21 21 23 23 24 24 25 25 25 25 28 29 30 31 32 33 33 33 33 33 34 34 33 34 35 36 37
24 23 22 21 21 20 20 21 21 21 22 22 23 23 23 25 25 24 22 22 22 22 26 28 31 31 32 32 32 32 32 32 33 33 33 34 34 36
22 22 22 25 26 25 24 24 23 23 23 23 23 23 22 25 23 23 22 22 23 24 23 24 25 25 25 28 28 29 30 32 33 33 34 34 35 35
20 20 20 22 25 27 28 28 27 25 21 20 18 26 24 23 23 23 23 22 22 24 23 22 24 22 22 23 28 30 31 32 32 32 32 34 34 35
20 20 20 21 26 24 27 29 28 30 29 27 25 23 23 23 24 24 25 24 24 23 23 21 22 20 21 21 28 29 30 31 32 32 31 32 33 34
21 21 21 22 25 26 25 26 26 26 26 25 24 24 25 25 28 26 25 23 23 22 22 19 20 19 20 21 28 29 30 31 31 31 31 31 31 31
21 22 24 24 27 28 27 26 25 24 25 26 27 29 29 28 26 23 22 22 19 18 20 19 19 20 21 21 21 28 28 29 29 29 30 31 31 31
23 23 26 25 28 29 25 23 21 19 20 22 20 19 20 20 25 22 20 20 20 18 20 19 20 21 18 21 21 22 20 26 28 29 30 30 30 26
23 23 23 28 28 27 26 20 20 22 22 17 17 18 19 20 21 22 23 22 20 19 21 23 21 21 21 19 20 21 21 21 21 22 27 28 29 29
23 23 24 28 26 24 22 24 25 24 17 17 18 19 20 21 21 21 22 22 23 23 23 24 21 19 18 17 16 19 21 21 22 22 23 26 29 31
24 25 25 23 22 20 22 23 23 17 18 18 19 20 20 21 21 20 21 21 21 22 24 23 23 21 21 18 17 18 20 21 22 22 23 24 25 25
24 18 19 19 20 19 18 18 17 17 19 20 19 19 20 19 19 19 18 19 19 18 21 22 21 21 19 20 20 18 19 19 21 23 24 25 26 27
20 15 14 15 15 15 16 17 17 17 19 19 19 18 18 18 18 18 18 18 17 17 18 19 21 21 21 20 19 19 20 20 22 23 24 24 25 26
16 14 15 15 16 16 16 17 17 18 17 18 18 17 17 17 17 19 20 18 17 17 18 19 19 19 19 20 24 20 21 21 22 23 25 25 25 27
15 15 16 16 16 17 17 17 16 17 17 16 16 16 17 18 19 17 17 18 18 18 19 20 20 20 18 16 20 24 24 24 24 25 26 25 25 26
16 16 16 16 17 17 17 16 16 16 16 16 17 19 18 17 16 17 18 18 19 21 22 23 23 23 21 20 22 24 27 27 26 25 25 26 27 29
16 16 17 17 17 17 17 17 16 16 18 18 15 17 17 18 18 19 19 23 24 22 21 22 25 29 28 28 24 23 25 28 30 29 28 27 25 26
16 16 17 18 18 17 17 16 16 15 15 15 16 17 18 20 20 20 21 21 21 22 23 27 28 28 27 25 23 24 25 27 29 31 32 33 29 25
16 16 17 18 18 17 17 16 16 16 16 16 17 18 20 21 22 22 23 23 24 26 26 25 25 26 26 26 26 25 26 27 27 28 29 31 33 33

GFSNE_sfc_dewp_066.txt.gz
Dewpoint
26 25 26 26 27 27 26 23 19 14 16 18 18 19 21 22 24 26 25 30 33 33 33 34 35 35 36 36 37 37 38 38 39 39 41 42 42 43
26 24 25 26 25 26 26 24 23 20 17 19 19 19 20 20 24 26 25 30 32 33 33 33 34 34 34 35 36 37 38 38 39 40 41 42 42 43
23 23 24 23 25 24 25 24 23 22 20 20 20 20 21 21 22 24 25 25 25 31 33 33 33 33 34 34 34 35 36 37 38 39 40 41 41 40
24 24 23 22 23 23 23 23 22 22 21 19 20 21 21 22 23 23 24 24 25 29 32 32 32 33 33 34 34 35 36 37 37 37 37 37 38 39
30 30 29 28 26 24 22 22 22 21 21 21 21 22 23 24 23 24 25 25 25 29 30 31 31 32 33 33 33 33 33 34 34 34 34 35 35 36
29 29 27 24 22 21 21 22 21 21 22 22 22 22 23 24 24 24 24 23 23 23 27 28 30 31 31 32 32 32 32 32 33 34 34 33 33 35
28 27 27 28 27 26 25 25 24 23 23 20 23 24 21 24 24 24 23 23 23 24 24 24 24 25 25 28 28 29 30 32 33 33 33 35 35 35
27 25 22 22 26 27 27 28 28 26 22 19 19 24 25 23 23 23 23 24 22 24 23 23 23 22 23 23 28 30 31 32 32 32 32 33 35 35
22 21 21 21 25 24 27 29 29 30 29 27 25 23 23 23 24 24 25 24 24 23 23 21 22 21 21 21 27 29 30 31 32 32 32 32 33 34
21 21 22 23 24 26 25 26 27 26 25 25 24 24 24 25 26 25 24 23 22 22 22 19 20 19 20 21 27 29 30 30 31 31 31 31 32 33
21 23 24 24 26 29 27 26 23 23 24 26 27 28 28 27 26 24 21 21 18 18 19 19 19 19 20 20 20 27 28 28 29 29 30 30 30 30
23 23 26 25 29 28 25 22 20 19 20 21 20 19 20 20 26 22 19 19 19 18 20 20 20 21 17 20 21 22 20 25 27 28 29 30 30 27
24 23 23 28 28 27 26 20 20 22 22 17 17 18 19 20 21 21 22 18 20 19 20 23 19 20 20 18 19 20 20 20 20 21 26 28 28 28
23 23 24 27 24 23 22 24 25 24 17 17 18 19 20 20 21 21 21 22 22 21 22 22 20 18 19 17 16 18 20 21 21 21 22 25 28 29
24 25 24 22 22 20 22 23 22 17 17 18 18 19 20 20 20 19 19 20 19 20 21 21 21 20 20 18 17 18 19 20 22 21 22 22 22 24
24 17 18 19 20 19 18 17 17 17 19 19 18 19 19 17 18 18 17 18 17 17 20 20 20 20 19 19 19 18 19 19 20 22 22 23 24 25
20 15 15 15 15 15 16 17 17 17 18 18 17 18 17 17 17 18 17 17 17 17 17 19 21 22 22 21 19 19 19 19 20 21 21 22 23 24
15 14 15 15 15 16 16 16 17 18 17 17 16 16 16 16 16 19 19 17 17 17 18 19 20 20 20 22 24 19 20 20 21 22 24 23 23 25
15 15 15 16 16 16 16 16 15 16 15 15 15 15 15 16 19 16 16 18 18 18 19 21 24 23 20 17 21 25 25 25 25 25 25 25 25 25
16 15 15 16 16 16 16 16 16 16 15 15 15 17 17 16 16 16 18 19 19 21 23 23 23 24 23 23 24 25 28 27 26 25 25 26 27 29
15 15 16 16 17 17 17 16 15 15 18 18 14 14 16 18 18 19 20 23 24 22 21 22 24 29 29 28 24 23 25 28 30 29 29 28 26 26
15 15 16 17 17 17 16 16 15 15 14 15 15 16 18 20 20 21 22 21 21 22 23 25 27 27 27 26 24 24 24 26 28 30 32 33 30 26
14 15 15 15 16 17 17 16 15 15 15 15 16 17 19 20 22 23 24 23 23 25 26 25 26 26 25 26 26 25 24 25 26 27 28 31 33 33

GFSNE_sfc_dewp_069.txt.gz
Dewpoint
32 29 28 27 28 30 31 29 27 19 16 19 19 21 22 22 24 23 25 29 33 34 34 34 35 35 35 36 37 37 38 38 39 40 42 42 44 44
27 26 27 28 28 28 28 26 24 22 16 19 20 20 21 20 23 25 24 30 31 33 33 33 33 34 34 35 35 36 38 39 39 41 41 42 42 43
25 26 26 26 28 27 28 27 27 28 26 22 21 21 21 22 23 24 26 25 25 30 32 33 33 34 34 34 35 35 36 37 38 39 41 41 42 42
28 28 28 31 32 31 30 28 25 25 23 21 21 21 22 23 24 25 24 24 25 28 32 33 33 33 34 34 34 35 35 37 37 37 37 38 39 40
31 31 31 32 32 32 29 26 24 22 24 22 22 23 23 24 25 25 25 26 24 28 30 31 31 32 33 33 33 33 33 34 34 34 35 35 36 37
31 31 31 31 31 30 29 27 27 27 27 24 24 26 25 26 26 25 23 22 22 23 27 28 30 31 32 32 32 32 32 32 33 34 34 34 34 34
32 32 32 31 32 31 31 30 28 26 26 29 27 26 27 25 23 23 21 22 24 25 24 23 23 24 25 28 28 29 30 32 33 33 34 35 35 37
30 29 30 31 31 31 30 28 28 27 30 28 28 25 24 22 22 22 24 24 22 23 22 23 24 22 23 23 27 30 31 31 32 32 33 34 35 35
28 24 25 25 28 25 26 28 28 29 29 27 24 22 22 21 27 27 26 26 24 24 23 22 22 21 22 21 27 29 30 31 32 32 32 32 32 34
26 27 24 24 24 26 26 29 28 26 24 24 23 23 25 26 27 27 27 25 23 22 22 21 21 19 20 21 27 28 30 30 30 30 31 31 31 32
25 24 24 24 27 28 28 28 23 22 23 24 27 28 28 28 26 25 25 23 20 19 20 19 20 21 22 22 21 26 27 27 28 29 30 30 31 31
24 23 26 26 28 28 25 23 20 18 22 23 21 20 21 21 25 22 24 23 22 20 21 22 21 21 21 20 21 21 21 25 27 28 29 29 30 27
23 23 23 28 26 25 24 20 20 23 22 18 17 19 19 20 21 22 24 24 21 22 22 25 24 22 22 21 20 22 22 22 21 22 26 27 28 28
23 23 24 24 23 23 21 24 25 23 17 17 19 20 21 22 23 23 23 24 24 24 25 25 22 22 21 20 19 23 25 25 25 23 23 26 28 29
22 23 22 21 21 20 22 23 21 17 18 20 20 21 22 23 24 24 24 24 24 24 24 24 23 23 23 21 21 21 23 24 26 26 26 25 25 25
22 17 18 19 19 19 18 17 17 18 20 21 20 20 21 22 22 23 22 23 22 23 26 26 24 24 22 23 23 21 23 23 26 27 27 26 26 26
20 14 14 15 15 16 16 17 17 17 20 19 20 19 19 20 20 22 22 22 21 21 22 24 26 26 25 24 22 23 24 25 26 26 26 25 26 27
14 14 15 16 16 16 16 17 17 19 19 19 19 19 18 19 20 22 24 22 20 21 23 24 25 25 26 26 27 24 25 25 27 28 28 25 25 27
14 15 16 16 17 17 18 18 18 19 19 19 18 18 18 19 21 21 21 21 22 23 24 25 27 26 22 21 24 28 30 29 29 27 29 28 28 28
16 16 16 17 17 18 18 19 19 19 18 18 19 20 20 19 19 21 23 23 23 25 26 26 27 27 26 25 26 27 29 30 29 29 29 30 30 31
15 16 16 17 18 19 19 19 18 18 20 20 18 18 19 19 20 22 23 25 26 25 24 25 27 29 31 30 27 25 28 29 30 30 31 30 28 29
15 15 16 17 18 18 18 19 18 19 18 18 18 19 20 21 21 22 23 24 24 25 25 27 29 30 29 27 25 25 26 28 29 30 31 32 30 28
15 15 16 17 17 17 17 18 18 18 18 18 19 19 21 21 22 24 24 25 26 27 28 28 28 28 27 26 25 25 25 26 27 27 29 31 33 33

GFSNE_sfc_dewp_072.txt.gz
Dewpoint
42 34 31 31 34 35 34 32 33 30 25 21 25 26 24 25 25 22 22 28 31 34 35 35 35 35 36 36 37 37 37 38 38 39 41 41 43 44
34 29 29 30 31 32 32 30 31 28 26 27 30 31 29 27 27 26 24 29 31 32 34 34 33 34 35 35 36 36 37 37 38 39 40 42 42 43
34 33 31 28 29 28 31 32 32 32 31 32 32 31 29 27 23 23 25 24 24 29 31 32 33 34 35 35 35 36 36 36 37 38 40 41 41 41
30 30 31 33 33 34 34 33 32 33 31 28 26 24 23 24 25 26 24 23 24 28 31 32 34 34 34 34 35 35 35 35 35 36 36 37 38 38
33 33 33 33 33 33 33 32 32 31 28 24 24 26 25 25 26 25 25 24 22 26 28 30 31 32 33 34 34 34 34 34 34 35 35 36 36 36
33 33 33 33 33 32 33 31 29 29 29 27 26 26 26 26 26 24 22 21 21 21 26 28 30 30 31 32 32 32 32 33 34 34 34 34 34 35
33 34 34 34 33 32 31 30 29 27 27 30 28 26 27 24 22 21 19 21 23 24 24 23 23 24 25 28 28 29 29 31 32 33 34 34 34 35
32 31 31 33 33 32 31 31 31 30 31 30 30 25 23 21 20 20 23 24 23 25 23 23 24 23 24 24 28 29 31 32 32 33 33 33 34 35
28 27 26 26 30 27 27 28 29 30 30 28 25 22 20 19 27 28 25 27 26 25 24 22 23 21 23 20 27 29 30 31 32 32 32 32 32 33
28 28 27 26 25 25 26 29 29 27 26 23 23 21 22 24 27 28 28 26 24 23 23 24 22 21 22 23 28 29 30 30 30 31 31 31 31 31
27 26 25 23 25 29 27 29 24 22 21 23 26 28 29 28 27 25 26 26 23 22 23 22 22 23 25 25 23 26 27 28 29 30 30 31 31 31
23 22 24 26 27 27 24 21 20 17 22 24 21 21 21 21 25 24 27 25 24 22 23 24 24 24 23 23 24 24 23 27 28 29 30 30 30 27
22 21 22 26 25 24 23 20 18 22 22 20 18 19 21 22 23 24 26 26 24 23 25 27 27 25 25 24 23 26 26 25 24 25 28 29 29 29
20 21 22 23 22 22 21 23 25 24 18 18 20 22 24 26 27 27 26 27 26 27 28 28 24 24 23 21 21 25 28 28 28 27 27 28 29 30
21 23 21 20 20 18 20 23 23 18 19 22 23 25 26 26 27 28 30 30 28 29 29 28 26 24 24 22 22 23 25 27 28 29 29 29 28 28
22 18 17 18 19 19 18 18 18 19 21 23 23 23 25 26 26 27 26 26 25 26 32 30 29 27 23 25 25 23 26 25 28 29 30 29 29 28
20 12 12 14 15 16 17 18 18 19 22 22 23 23 23 25 25 26 25 26 25 24 25 29 31 30 29 27 25 25 26 26 29 30 29 28 28 29
12 11 13 16 17 17 18 19 20 21 22 23 22 22 23 23 23 25 27 26 24 23 24 28 28 27 28 29 30 27 28 28 30 31 31 29 29 30
11 14 16 18 19 20 21 22 22 23 23 22 22 22 22 22 24 24 25 26 24 24 25 28 28 27 24 23 27 29 30 31 30 29 30 30 29 30
15 16 18 19 20 21 22 22 22 23 23 23 22 23 23 23 23 24 25 25 25 26 27 28 28 28 27 26 26 28 30 30 30 29 29 30 31 32
15 16 17 19 20 22 22 22 22 22 22 23 22 22 22 23 23 24 24 25 26 25 26 26 29 30 31 31 29 27 28 30 30 31 30 29 28 28
15 15 16 18 20 21 22 22 22 22 23 23 23 23 23 24 23 24 25 26 24 26 27 29 31 31 31 29 27 27 27 28 29 30 31 30 29 27
16 16 17 19 20 21 21 21 22 22 23 23 23 23 23 23 23 25 26 26 27 28 29 28 29 30 29 29 29 29 28 26 27 27 29 31 32 33

GFSNE_sfc_dewp_075.txt.gz
Dewpoint
47 42 38 37 38 39 39 40 40 37 33 30 31 32 33 31 31 31 28 29 31 33 35 36 37 37 37 37 38 38 38 38 39 39 40 40 41 43
42 39 39 37 36 36 36 33 33 34 32 32 33 34 34 34 36 36 33 32 31 33 33 34 34 35 35 36 37 37 38 38 38 39 39 40 41 41
39 36 35 36 35 35 35 35 34 34 32 34 34 34 33 33 32 31 29 24 25 30 31 32 33 34 35 36 36 37 37 37 37 38 38 39 40 41
35 35 34 34 35 35 36 35 34 34 33 31 31 31 31 27 27 28 27 25 25 28 31 31 32 33 34 35 35 36 36 36 36 37 37 37 37 38
34 34 35 35 35 34 34 33 33 33 31 28 25 27 28 27 27 26 26 26 24 27 27 29 31 32 33 34 35 35 35 35 35 35 35 36 36 37
35 35 35 35 34 33 33 32 30 29 29 28 27 29 28 29 29 27 25 25 22 21 26 29 31 30 31 32 32 32 32 32 33 34 34 34 34 35
34 34 35 35 35 32 30 30 29 28 28 31 29 29 30 26 25 25 22 22 24 26 26 26 26 26 27 29 29 30 30 31 32 33 34 33 33 34
32 32 33 33 33 32 31 30 30 29 31 31 32 27 26 24 23 22 25 24 24 27 25 25 26 24 25 25 29 30 31 31 32 33 33 33 32 33
32 32 29 30 29 26 25 28 30 30 30 29 27 25 23 22 28 27 27 27 26 27 25 24 25 24 25 23 29 30 31 31 32 32 32 32 33 33
28 27 25 24 24 25 26 30 30 29 29 25 26 23 23 24 27 27 28 26 25 25 26 24 24 24 24 25 29 30 31 31 31 31 32 32 32 32
29 29 24 23 26 28 28 30 26 24 21 21 23 26 29 29 28 27 26 26 24 23 25 23 24 24 25 25 25 29 29 29 30 31 31 31 31 31
23 22 25 26 27 27 24 22 21 19 23 25 23 23 22 22 25 25 27 25 24 24 26 26 25 25 24 24 25 25 24 28 29 30 31 31 31 27
22 21 22 25 25 24 24 22 19 22 24 22 20 21 22 24 25 26 27 28 25 24 25 27 24 24 24 23 24 25 24 25 25 27 29 30 30 30
20 21 22 24 22 23 22 21 25 25 21 20 22 24 26 26 27 27 26 27 28 27 27 27 25 24 22 21 20 23 24 25 26 26 27 29 30 31
22 23 22 20 20 19 17 23 24 20 20 23 24 25 25 26 26 26 28 28 28 28 28 27 27 26 25 22 21 22 23 24 25 26 29 29 28 29
24 22 16 18 18 19 19 19 19 20 22 23 24 24 25 25 25 26 26 25 24 24 27 28 29 29 26 25 24 23 24 24 26 27 28 29 29 29
22 14 13 13 15 17 19 19 20 20 23 23 23 24 23 24 24 25 26 25 24 24 24 26 28 30 30 28 25 25 25 26 27 27 28 28 29 30
16 10 12 16 18 19 19 20 21 22 22 24 22 22 22 22 22 24 26 25 24 24 25 26 26 27 27 28 30 27 28 28 29 29 30 29 28 29
12 14 16 18 20 21 21 22 22 22 24 24 24 22 22 23 22 23 24 25 24 23 25 27 27 27 24 21 25 30 28 28 28 28 29 29 28 29
16 17 18 20 21 22 21 22 22 22 23 22 23 24 24 23 22 23 24 24 24 25 26 26 26 26 26 25 26 28 30 29 29 28 28 29 29 31
17 18 17 19 21 23 22 22 22 22 23 24 23 23 24 24 22 23 24 25 25 25 24 24 25 29 29 30 28 26 27 31 31 30 29 28 27 26
16 17 18 19 21 22 23 23 22 22 22 23 23 24 24 24 22 23 23 24 24 25 25 26 28 29 27 27 26 27 27 28 30 31 31 31 29 25
18 18 19 20 21 22 22 22 21 21 22 23 23 23 23 23 23 23 24 24 25 26 26 27 28 28 28 29 28 26 26 27 27 27 28 31 32 33

GFSNE_sfc_dewp_078.txt.gz
Dewpoint
50 45 42 41 42 42 41 42 41 37 36 35 35 37 37 37 36 35 32 34 37 40 37 36 36 37 37 38 38 38 38 39 39 40 40 40 41 42
43 42 40 40 39 39 40 40 41 39 35 35 34 35 36 36 36 37 36 37 36 35 33 33 34 35 35 36 37 37 38 38 39 39 39 39 40 40
41 39 38 37 37 38 39 38 36 36 35 33 35 35 35 35 34 33 32 30 27 31 31 32 33 34 34 35 36 37 37 37 38 38 38 39 40 40
36 36 36 37 37 38 37 36 35 35 34 33 33 32 32 30 28 27 27 27 27 28 31 32 31 31 33 34 35 36 36 36 36 36 37 38 38 38
36 36 36 36 36 36 34 34 33 33 31 29 26 28 28 27 26 27 27 27 26 29 27 28 30 32 33 34 34 34 34 35 35 35 35 35 36 37
36 36 36 35 35 34 33 33 31 30 29 28 27 28 28 28 28 27 26 25 23 23 27 29 30 31 32 32 32 32 32 32 33 33 33 34 34 34
34 35 35 36 35 33 31 30 30 28 28 29 28 28 27 26 25 24 21 24 24 26 26 26 26 26 27 30 29 30 31 32 32 33 34 33 34 34
32 32 33 35 35 34 33 33 31 30 30 28 28 27 26 23 22 24 24 23 22 26 25 26 26 26 26 27 30 31 31 32 32 33 34 33 33 33
32 32 32 31 31 30 27 27 29 30 29 28 27 26 23 22 24 23 24 22 24 27 26 24 25 25 26 25 30 31 31 32 33 33 33 33 33 33
29 28 27 27 27 27 28 29 29 29 28 26 25 24 23 23 25 23 23 24 25 25 25 23 24 23 24 26 30 30 31 32 31 31 32 33 32 32
28 28 26 24 27 28 28 26 23 22 20 22 23 26 28 29 28 25 21 19 23 22 24 23 23 24 24 24 25 29 29 29 30 31 32 32 32 32
25 25 26 26 27 27 24 22 20 19 21 23 23 23 23 22 25 23 20 16 24 23 24 21 22 23 22 24 23 24 24 28 29 30 31 31 31 29
21 21 22 25 24 23 24 21 20 22 24 22 20 20 22 24 26 26 27 28 26 25 25 28 23 24 24 23 23 23 23 24 24 25 29 30 31 30
19 21 23 24 22 22 21 22 24 25 23 20 21 22 23 25 27 26 25 27 28 27 28 28 25 24 23 21 20 22 23 24 24 24 25 28 30 30
22 23 22 19 20 20 20 22 23 19 20 21 21 22 25 26 27 27 28 29 29 29 29 26 27 26 26 23 22 22 23 24 25 25 24 26 26 27
24 22 17 16 16 17 18 19 19 19 20 18 19 23 24 25 25 26 25 25 24 24 28 29 28 28 26 26 26 24 24 24 26 27 27 28 28 28
22 16 12 13 15 18 19 19 20 21 21 23 24 23 24 24 24 25 25 24 23 24 24 26 28 29 28 28 26 26 27 27 28 27 27 27 29 30
18 12 12 16 18 19 20 20 21 23 23 24 23 23 23 23 23 23 24 23 24 24 24 25 26 27 27 26 30 27 27 26 28 28 29 28 27 29
14 15 17 18 19 20 21 22 22 23 24 24 24 23 23 23 23 22 22 23 23 24 24 26 27 25 22 20 23 29 26 27 28 29 29 28 28 28
17 17 17 18 18 17 21 21 23 23 22 23 23 23 23 22 21 19 20 22 23 24 24 23 23 22 22 23 24 27 30 28 29 28 28 29 30 31
17 17 18 17 16 16 18 22 22 22 22 23 23 23 23 22 21 20 21 24 25 23 22 22 24 28 28 28 27 24 26 30 30 30 31 30 28 28
17 17 17 17 15 11 10 11 14 15 20 21 22 23 20 21 21 20 21 21 21 22 23 24 25 26 28 26 25 25 27 27 28 30 31 32 30 26
17 17 15 14 11 9 8 9 11 14 16 20 22 21 21 21 21 22 22 22 22 23 24 24 24 26 26 26 27 27 25 25 25 25 27 30 31 32

GFSNE_sfc_dewp_081.txt.gz
Dewpoint
55 52 47 45 45 44 44 45 44 37 35 37 37 38 39 39 40 39 38 39 40 39 40 40 38 37 38 38 38 39 39 39 39 40 40 40 41 41
44 43 41 42 41 42 43 43 43 42 40 36 36 36 37 37 38 38 37 37 38 39 37 35 34 35 36 36 37 37 38 39 39 39 40 39 40 40
41 39 38 39 39 39 39 39 39 38 37 34 36 36 35 35 35 35 35 32 31 32 33 33 34 34 35 35 35 37 37 38 38 38 39 40 41 41
37 37 37 38 37 38 37 37 37 36 36 34 34 34 33 32 30 29 27 26 28 31 32 32 31 31 32 34 35 36 36 35 36 36 36 37 38 39
37 37 36 36 36 36 35 34 34 34 33 31 27 28 29 28 27 27 27 28 27 28 27 28 30 32 33 34 34 34 34 34 35 34 35 35 36 36
36 36 36 35 35 34 34 33 32 30 29 29 28 29 29 29 29 27 27 25 23 23 26 28 30 31 32 32 33 32 32 32 33 33 34 34 34 35
35 36 36 36 36 35 33 32 31 31 29 31 30 28 27 25 25 23 22 24 23 24 25 25 25 27 28 30 30 31 32 33 33 34 34 34 34 35
32 33 34 36 36 36 35 34 32 29 28 30 27 27 25 23 22 23 23 22 22 25 26 25 27 25 26 27 30 31 31 32 33 33 34 34 34 34
31 32 32 31 30 28 27 28 29 30 30 29 27 26 24 22 22 21 23 20 21 26 26 23 25 25 26 25 30 31 32 32 32 33 32 33 33 34
29 28 28 27 27 27 28 28 28 28 27 26 25 24 23 23 23 22 22 23 24 25 25 19 24 23 24 25 29 30 30 30 30 31 32 33 33 33
26 26 25 25 27 28 25 23 21 20 21 24 25 27 27 27 27 24 20 17 19 22 23 23 23 23 23 24 24 27 28 29 29 31 31 32 32 32
26 25 27 26 26 24 23 21 20 18 21 24 22 21 22 23 28 24 18 11 22 18 23 22 20 25 21 23 23 24 24 27 28 29 30 30 31 29
21 21 22 24 24 23 23 20 21 21 24 22 20 21 23 24 25 26 26 22 25 25 26 28 25 25 25 23 22 23 23 23 23 24 28 29 30 31
19 22 23 23 21 22 21 21 23 24 21 20 22 22 22 25 27 26 26 27 28 27 28 28 25 25 24 22 21 22 23 24 24 24 24 27 30 31
22 23 23 18 20 19 20 21 22 19 20 20 20 20 26 26 27 27 28 29 29 28 27 28 27 26 26 23 22 23 24 24 26 25 24 25 26 27
23 21 20 17 17 18 18 19 19 20 20 17 18 23 25 25 25 26 25 25 24 21 23 24 28 27 25 25 25 24 25 25 27 27 27 28 28 29
21 18 12 13 16 18 19 20 21 22 20 22 24 23 23 24 24 25 24 23 21 20 21 23 26 26 26 25 25 26 26 26 27 27 28 28 29 29
18 13 11 16 18 19 20 20 21 22 22 23 23 24 23 23 22 24 24 16 20 20 21 23 23 24 24 24 28 26 26 25 26 26 27 27 27 28
14 14 17 18 18 19 19 21 22 23 24 23 22 23 23 23 23 22 16 17 19 20 21 22 21 22 21 18 22 25 22 25 26 26 28 28 28 28
17 16 16 17 17 16 15 17 22 23 22 22 22 23 23 23 21 19 17 18 19 20 21 23 17 19 20 21 22 25 29 26 27 26 27 29 29 31
17 17 17 17 15 14 13 11 16 20 22 22 22 22 22 22 19 20 20 22 23 21 20 20 21 27 26 26 24 24 25 29 29 28 28 27 26 26
17 17 17 17 15 10 7 5 6 10 8 19 20 21 22 19 19 19 20 19 19 19 21 23 24 24 25 24 23 24 25 26 29 30 30 30 27 25
17 17 16 14 11 7 3 3 6 9 8 11 14 17 19 19 19 20 20 20 20 20 21 22 23 24 24 24 25 25 25 25 26 25 27 30 30 30

GFSNE_sfc_dewp_084.txt.gz
Dewpoint
53 52 48 45 46 46 46 47 47 42 38 38 38 40 40 41 41 41 40 41 43 43 43 41 42 42 41 39 39 39 39 40 39 40 41 41 41 42
44 43 42 42 43 44 44 45 45 43 40 38 38 37 38 39 40 39 39 39 40 40 40 41 39 36 36 37 37 37 38 38 39 40 40 41 41 42
41 40 40 40 40 40 40 40 39 39 37 35 36 36 36 36 37 38 37 36 35 36 34 34 34 35 35 35 35 35 37 37 37 39 39 40 41 42
38 38 38 38 37 38 38 36 36 35 36 34 34 34 34 35 35 30 29 27 28 30 33 33 33 32 32 33 35 36 36 36 36 37 38 38 39 40
37 37 37 37 36 36 35 35 34 33 33 33 30 31 31 29 28 27 28 28 27 27 27 29 30 31 33 34 34 35 35 34 35 35 35 36 36 37
36 36 36 35 35 35 34 33 31 30 31 29 29 30 30 29 28 27 26 24 23 23 25 27 30 31 32 33 33 32 32 32 33 34 35 35 34 35
36 36 36 36 36 35 33 32 31 30 30 30 29 27 25 25 24 23 21 22 22 23 25 26 26 26 27 30 30 31 32 33 34 34 35 35 34 35
33 33 36 36 36 36 35 34 31 28 26 23 19 24 24 23 22 22 21 19 19 25 25 25 25 25 26 26 30 31 32 32 33 33 34 34 34 35
32 32 31 30 28 27 28 29 29 30 30 27 25 24 23 22 20 19 21 17 19 25 25 23 25 24 25 25 29 31 32 32 32 32 33 33 34 34
28 26 26 26 27 28 27 27 26 26 24 26 26 24 23 23 23 20 20 22 24 24 25 17 23 23 24 24 29 29 28 30 31 31 32 32 32 33
26 25 24 25 29 30 24 23 20 20 22 26 26 26 27 27 27 24 20 17 18 22 23 23 23 23 24 24 24 26 28 28 29 30 31 31 31 32
24 25 28 26 26 25 22 21 19 18 20 24 22 21 23 26 29 24 18 10 13 15 23 26 23 23 18 22 23 23 23 28 29 29 30 30 31 28
21 21 22 25 23 22 24 20 19 21 24 21 19 22 24 24 25 25 25 20 22 23 26 27 23 26 25 19 22 23 23 23 23 24 28 29 30 30
19 21 22 23 20 21 21 21 23 24 21 20 22 21 22 23 25 25 26 27 28 27 28 28 25 21 22 21 21 22 23 25 24 24 24 27 30 31
21 23 24 20 19 19 20 21 22 19 20 20 19 19 23 25 25 27 28 28 28 28 26 16 23 22 24 23 22 23 24 25 25 23 25 26 26 28
24 21 21 18 18 19 18 19 19 19 19 16 17 24 24 24 24 26 24 25 24 20 21 21 19 19 24 24 24 24 25 24 25 26 26 27 28 28
21 17 12 13 15 18 19 20 21 22 20 21 24 24 23 24 24 25 24 24 20 20 19 21 23 24 24 24 24 25 25 25 26 25 25 25 26 28
18 13 11 14 17 18 19 20 21 22 23 24 24 24 23 23 23 24 23 17 18 19 19 19 20 20 23 24 27 24 25 24 25 25 25 26 26 28
16 14 16 17 17 18 17 16 18 23 24 23 23 22 23 23 23 21 11 14 17 17 18 18 14 21 19 17 21 25 21 22 25 25 26 27 27 27
17 16 15 16 17 15 14 11 12 21 23 23 22 22 23 22 22 17 15 15 17 17 17 21 18 12 19 19 21 22 27 24 25 25 25 27 28 31
16 16 17 16 15 14 13 9 6 9 16 20 22 21 20 21 21 15 17 22 23 20 17 17 19 24 26 25 22 21 23 27 28 27 26 27 27 26
17 16 17 16 15 10 7 4 2 5 7 8 13 17 18 16 18 18 18 18 18 18 19 20 21 23 24 23 21 22 22 25 28 29 30 30 28 25
17 17 16 15 12 9 4 2 4 7 6 7 8 11 12 16 17 18 19 19 19 18 18 20 21 22 22 23 23 23 24 24 25 25 25 28 30 30

GFSNE_sfc_dewp_087.txt.gz
Dewpoint
50 50 49 46 47 47 48 48 48 43 40 39 38 40 41 42 43 43 42 43 45 45 46 45 43 43 44 43 42 41 40 40 40 40 41 42 42 42
45 45 43 43 44 44 44 45 45 45 42 38 38 38 39 40 40 40 40 41 42 43 43 41 41 40 38 37 37 38 38 38 39 40 41 41 41 43
42 41 41 41 41 41 41 40 39 40 38 35 36 36 36 37 38 39 39 38 37 38 36 34 35 35 35 35 35 36 36 37 38 38 40 41 41 41
39 39 39 39 38 38 38 37 36 36 37 34 34 35 35 36 36 35 31 29 29 30 32 33 34 33 33 33 33 35 36 36 37 37 37 38 38 39
39 38 38 37 36 36 36 35 34 34 35 34 31 32 31 30 28 28 28 28 26 27 27 29 30 31 33 33 34 34 34 35 35 35 35 36 37 37
37 37 36 36 35 34 34 33 31 31 30 30 29 30 30 29 28 27 25 23 22 22 25 27 30 31 31 32 33 33 33 33 34 35 35 35 36 36
35 35 35 36 36 35 32 31 31 30 28 25 26 26 23 24 23 22 21 21 22 23 25 25 25 26 26 29 29 31 33 34 34 35 35 35 35 35
34 34 35 35 36 36 35 34 30 27 25 21 17 24 23 23 22 21 20 19 18 24 24 24 25 24 25 25 30 31 32 33 34 34 34 33 34 35
33 32 29 28 28 27 30 31 31 32 30 27 24 24 23 23 20 18 20 16 18 24 24 23 24 24 24 24 29 31 31 31 32 32 33 33 33 33
26 25 25 25 27 27 27 26 24 23 24 27 26 25 24 23 22 19 18 21 24 24 24 17 23 23 24 24 29 29 29 29 30 31 31 32 32 32
25 24 25 26 30 28 24 23 20 20 22 27 26 26 27 28 27 23 20 17 18 22 23 23 22 22 24 24 24 27 28 29 29 30 31 31 31 32
25 25 28 26 25 26 22 21 18 17 19 24 22 21 24 27 29 23 17 9 12 15 23 22 20 21 17 21 23 23 23 28 29 29 30 31 31 29
22 21 22 25 23 22 25 21 18 20 24 21 19 22 23 24 25 25 24 15 23 23 24 27 23 25 24 18 22 23 23 24 23 25 29 30 30 30
19 21 22 24 20 21 21 23 22 25 21 20 22 20 21 21 24 26 25 28 28 27 27 28 25 23 16 21 20 21 22 24 25 24 25 27 30 31
21 23 25 24 19 19 20 21 23 19 20 19 19 18 21 26 26 26 27 28 27 28 29 22 23 20 22 22 22 23 23 24 26 23 21 24 25 26
24 22 20 20 19 19 19 20 19 19 18 16 16 20 25 24 24 26 24 24 23 20 19 16 15 13 19 23 24 23 23 23 22 26 25 26 26 27
22 16 12 12 14 17 19 20 21 21 19 20 23 24 24 24 24 25 24 24 22 16 20 20 21 21 21 21 21 23 23 23 25 24 24 24 25 26
19 14 11 13 15 16 18 19 20 21 23 24 24 24 23 23 23 24 24 20 19 17 16 14 12 15 18 21 26 22 22 22 24 24 23 24 25 26
19 16 15 16 16 17 17 15 12 17 23 24 23 23 23 22 22 22 18 12 16 16 16 15 6 15 17 16 20 24 21 16 21 23 24 25 25 26
18 16 15 16 16 15 14 11 10 11 14 19 23 22 22 22 21 19 20 15 16 16 16 14 12 12 17 18 20 21 25 23 22 22 23 26 27 30
16 16 16 16 16 15 14 10 7 6 8 8 10 17 22 20 19 19 18 20 22 20 16 16 17 22 23 24 21 20 22 26 26 24 24 25 25 25
19 17 17 16 15 13 10 7 4 5 5 5 7 8 10 13 17 17 17 16 17 17 17 18 19 17 21 21 20 20 21 23 26 27 29 29 26 24
19 19 18 16 14 11 7 4 4 7 5 5 5 6 6 11 15 16 17 17 17 17 17 17 18 19 20 21 22 21 21 21 23 24 25 28 29 30

GFSNE_sfc_dewp_090.txt.gz
Dewpoint
52 52 51 47 48 48 49 50 49 43 42 38 38 40 41 42 44 43 42 44 44 45 45 45 45 44 44 44 43 42 41 40 40 40 40 41 42 43
47 47 45 44 44 45 45 46 46 46 43 39 37 38 40 40 41 41 40 41 41 43 43 42 42 41 39 38 37 38 38 38 39 39 40 41 41 42
43 43 42 42 42 42 42 41 40 41 39 35 37 37 37 38 38 40 39 38 38 39 37 35 34 35 35 36 35 35 36 37 37 38 39 41 41 41
41 41 39 40 39 39 39 38 37 38 38 35 35 35 35 36 36 35 33 31 30 30 32 33 33 33 33 33 33 33 35 36 37 36 37 38 39 39
39 38 39 38 37 37 36 36 35 35 36 35 31 32 31 29 29 29 28 27 25 26 27 29 30 30 31 33 34 34 35 35 35 36 36 36 37 37
37 37 37 36 36 35 33 31 31 31 31 30 30 31 30 28 27 25 23 22 22 22 24 27 29 31 31 32 32 33 33 33 34 35 35 36 35 36
35 35 35 36 37 35 32 30 29 28 26 25 25 25 23 24 23 22 21 21 21 23 24 24 25 25 25 29 29 30 32 33 34 35 35 35 34 34
34 34 35 36 37 36 35 33 29 26 25 22 21 23 23 22 22 21 20 18 16 23 24 24 25 24 24 25 29 31 32 33 34 34 33 33 34 34
33 31 28 29 29 28 32 34 33 33 30 26 24 23 23 23 20 18 20 16 17 24 24 22 24 23 24 24 29 30 31 32 30 31 32 33 33 33
26 24 25 26 28 27 27 25 24 23 26 28 26 25 24 23 21 18 18 20 24 24 24 17 22 23 23 24 28 29 30 29 30 31 31 32 32 32
24 25 26 27 31 27 23 22 20 20 23 28 27 26 28 28 27 23 20 17 17 21 23 22 22 22 23 23 23 27 29 29 29 30 31 32 32 32
26 27 29 26 26 28 21 19 17 15 19 24 21 21 25 27 28 23 17 8 11 15 22 21 20 21 16 21 22 22 23 27 29 29 30 31 31 29
23 22 23 26 23 22 25 21 18 19 24 21 19 22 23 24 24 25 23 18 23 23 24 27 20 25 24 19 22 23 22 23 23 25 29 30 30 30
19 20 21 24 20 20 22 23 22 27 21 19 21 19 20 21 22 24 25 28 29 27 28 27 24 24 22 21 20 21 21 24 24 24 25 27 30 30
21 22 26 25 21 20 19 21 24 19 19 18 18 17 18 25 26 26 26 27 27 27 28 28 27 25 22 22 21 21 23 22 24 23 20 22 25 26
25 22 20 20 21 20 19 20 19 19 18 15 15 18 25 25 24 25 24 24 22 15 19 13 11 10 13 19 21 21 22 22 20 23 24 25 25 26
22 17 12 12 13 15 18 19 20 21 18 18 20 24 22 24 23 25 24 23 22 14 14 18 20 19 18 17 19 20 20 21 23 23 20 23 24 25
20 15 12 12 14 14 16 18 20 21 20 20 21 24 23 23 23 23 24 23 20 15 12 11 8 11 14 20 24 19 18 19 21 21 20 22 22 24
22 19 16 15 15 16 16 15 12 16 12 13 16 23 23 23 22 22 21 21 18 14 15 10 3 9 13 14 19 24 21 20 18 21 23 22 22 24
20 18 17 16 16 15 14 11 10 10 9 11 12 12 16 22 21 20 20 19 18 15 15 10 6 8 14 14 16 19 23 21 21 21 22 23 25 28
17 16 16 16 16 15 14 11 8 6 5 4 6 8 11 20 20 19 18 20 21 18 16 15 16 21 19 21 18 18 20 24 25 23 23 24 23 24
19 18 18 17 16 14 12 9 4 4 5 4 5 5 8 6 16 18 17 17 16 15 15 16 17 11 10 18 16 18 20 22 24 26 27 27 25 23
22 21 20 18 17 15 10 6 5 6 4 5 4 5 3 5 12 15 16 16 15 14 15 15 17 15 17 18 19 19 20 20 22 22 23 26 28 30

GFSNE_sfc_dewp_093.txt.gz
Dewpoint
59 58 56 51 51 51 52 53 51 45 46 41 41 41 43 45 45 45 45 46 46 45 45 45 45 44 43 44 42 40 40 40 40 40 40 41 42 42
51 51 49 48 48 48 49 49 49 49 45 41 39 39 41 41 43 42 42 42 42 42 43 42 41 39 38 38 37 37 37 37 38 39 39 40 41 42
47 47 46 46 46 45 45 44 44 46 44 37 38 38 39 40 39 40 39 38 37 38 36 35 34 35 35 35 35 35 36 36 37 38 39 39 39 38
44 43 42 42 41 43 42 41 41 41 42 39 37 36 37 37 36 35 33 30 29 30 32 33 33 33 33 33 34 34 34 35 36 37 38 37 38 39
42 42 41 40 40 40 39 38 38 37 38 37 34 34 32 30 29 29 28 27 24 27 27 28 30 30 31 31 33 34 35 35 36 36 36 36 37 37
39 39 39 39 38 37 35 34 34 34 34 33 31 31 30 29 29 28 27 25 24 21 23 27 29 31 31 31 32 33 33 33 34 34 35 36 36 36
37 37 37 37 36 35 34 32 31 30 30 32 29 28 29 27 26 24 22 22 22 23 24 24 25 25 25 28 29 29 31 33 34 35 35 35 35 34
36 36 37 38 37 36 34 33 30 28 30 30 30 26 25 25 24 23 23 22 16 25 25 24 25 24 25 26 28 31 32 33 33 33 33 34 34 34
34 34 31 31 32 33 35 35 34 33 29 27 24 25 25 25 27 26 23 24 24 25 26 22 24 22 25 23 28 31 32 32 31 30 32 33 33 33
28 26 26 27 28 27 26 27 26 26 27 27 27 27 26 25 25 26 27 26 25 25 25 25 24 23 24 24 27 30 30 31 30 31 31 32 32 33
25 28 30 30 30 28 25 24 21 21 28 29 28 28 28 29 26 26 27 27 23 22 24 24 24 24 24 24 23 26 27 28 29 30 31 32 32 32
28 29 30 28 29 26 19 17 15 14 22 23 21 21 25 29 28 25 27 27 26 25 25 26 25 24 26 23 24 24 23 25 28 29 30 31 31 29
25 25 25 26 24 25 25 20 16 20 26 22 19 22 24 25 25 25 26 27 27 25 25 28 27 26 26 25 24 25 24 24 23 25 27 29 30 30
21 21 23 25 22 22 24 23 23 27 22 19 21 23 24 26 26 26 25 26 28 28 28 30 27 26 25 23 23 25 25 25 26 26 25 27 30 30
20 21 24 25 22 21 19 21 25 21 20 21 22 23 25 26 28 27 27 28 29 29 30 30 28 27 26 23 23 23 24 26 26 28 28 27 27 27
25 25 21 21 21 19 20 21 19 19 21 22 23 24 26 26 25 26 25 25 24 25 27 26 25 23 24 24 24 22 23 24 28 28 28 27 27 27
23 18 13 11 12 14 17 18 20 20 23 22 24 24 23 23 23 25 25 25 23 23 24 24 24 24 24 23 22 23 24 25 27 28 27 26 27 26
23 16 13 11 12 12 14 16 19 22 23 24 25 24 24 24 24 25 25 24 23 21 22 22 22 21 22 23 26 24 24 25 26 27 27 25 25 26
23 20 19 17 16 16 17 19 20 22 23 24 24 24 24 24 23 23 22 22 21 20 22 22 20 19 19 18 21 26 25 25 25 25 25 25 25 26
24 23 22 21 19 19 19 20 20 21 21 22 23 23 23 24 23 22 21 20 19 19 20 21 20 20 19 19 20 22 23 25 24 25 24 25 26 27
22 21 21 21 20 20 20 20 19 19 19 19 19 20 21 22 22 21 19 20 21 20 20 20 21 20 23 22 18 19 23 23 24 26 26 24 23 24
22 21 20 20 20 21 21 20 18 18 20 19 18 18 18 19 20 20 19 19 18 18 19 20 20 20 20 18 18 19 21 22 23 24 25 26 26 23
25 23 24 23 23 22 21 19 17 18 17 16 16 16 16 15 16 17 17 17 17 17 17 17 18 19 19 19 20 19 20 21 22 23 25 26 27 27

GFSNE_sfc_dewp_096.txt.gz
Dewpoint
61 60 59 59 58 57 56 55 54 50 50 44 44 43 44 46 46 46 47 48 47 46 46 45 45 44 44 43 42 41 41 41 40 41 41 41 41 42
58 59 55 52 52 54 55 54 52 52 49 44 43 41 42 42 43 43 43 42 43 43 43 42 42 39 38 38 38 38 38 38 39 40 40 40 40 40
51 51 50 50 49 49 51 50 50 50 47 40 41 40 40 41 40 41 40 39 38 38 37 35 35 35 35 35 36 36 36 36 36 37 38 38 38 38
47 49 46 45 46 45 46 46 47 46 47 42 39 38 39 39 38 37 34 31 31 31 32 33 33 33 33 33 34 34 34 35 35 36 37 38 38 37
46 45 44 44 43 44 44 44 43 41 43 42 38 37 35 35 33 31 30 29 25 27 26 27 30 31 31 32 32 32 34 35 36 36 36 36 36 37
43 43 42 43 43 42 40 39 38 38 39 38 36 35 33 31 31 30 29 28 27 22 22 25 29 29 31 32 32 32 33 34 34 34 35 36 36 36
41 40 40 39 38 37 37 36 36 35 36 38 35 33 33 30 29 27 25 24 23 23 21 21 23 24 25 28 30 30 30 32 34 35 36 36 35 35
39 39 38 38 37 36 35 33 32 34 34 34 34 30 28 27 25 24 24 23 20 23 23 22 26 25 25 26 25 30 32 33 34 34 33 33 34 35
37 37 35 34 35 34 36 35 34 33 30 25 23 21 22 24 28 28 25 24 24 24 26 24 25 23 25 22 27 31 32 33 33 30 32 33 33 33
33 32 32 31 30 30 27 28 27 26 27 25 26 26 26 26 26 29 29 27 25 25 26 27 25 24 25 26 26 32 31 32 32 31 32 32 33 33
27 27 27 27 30 29 27 26 23 26 30 30 29 29 29 28 26 28 28 27 25 23 25 24 26 26 27 26 24 27 28 30 31 31 31 32 32 32
28 30 31 27 27 23 17 16 14 17 22 22 22 24 24 29 30 26 29 30 29 28 26 27 27 27 29 27 25 25 25 26 28 30 30 31 31 29
26 25 26 28 28 27 21 18 15 17 24 21 19 20 22 26 25 25 27 30 28 28 26 28 27 27 27 28 27 27 27 26 25 26 28 29 29 30
22 24 26 27 24 25 25 24 26 26 22 20 19 21 23 26 27 27 26 28 27 29 29 31 27 27 26 25 25 28 29 29 28 27 27 28 29 30
20 21 25 25 23 22 20 22 26 23 21 21 21 25 27 29 31 29 30 30 31 32 32 31 29 28 27 25 25 25 27 28 30 31 30 29 28 27
24 25 25 24 23 20 19 23 21 20 21 23 23 25 28 28 27 26 26 26 26 26 32 31 29 28 26 25 25 24 26 27 30 31 31 29 28 27
25 22 18 17 17 17 16 15 17 18 22 22 25 26 26 26 25 26 26 26 24 24 24 26 27 27 27 27 24 26 28 29 30 31 29 28 29 28
20 15 13 12 12 10 12 14 16 20 22 25 26 26 26 26 25 25 26 25 24 23 24 24 24 23 24 26 28 27 27 28 30 29 29 27 26 28
22 18 16 17 16 16 17 20 22 22 29 27 26 27 27 26 25 24 24 22 22 22 23 24 23 22 20 19 22 28 27 27 27 28 28 27 27 28
25 24 23 22 21 22 22 23 24 24 24 25 25 26 26 25 24 24 23 22 21 21 22 23 23 22 21 20 21 24 25 26 25 25 26 27 27 27
28 27 26 24 24 25 25 25 25 25 25 24 24 24 25 25 23 23 22 21 21 21 21 21 24 22 24 23 19 18 24 25 25 26 26 25 24 23
27 26 25 26 26 26 27 26 25 24 24 24 23 23 23 23 22 21 20 21 20 20 21 23 23 23 22 19 19 19 21 23 24 24 25 25 25 23
29 27 27 27 28 28 28 27 26 25 24 24 23 22 22 21 20 19 19 19 19 19 19 19 20 20 21 21 20 19 20 22 23 23 25 25 26 28

GFSNE_sfc_dewp_099.txt.gz
Dewpoint
61 61 60 60 59 59 58 57 54 50 50 48 45 44 45 46 45 47 46 48 48 48 47 47 45 45 44 43 42 41 41 40 40 41 41 41 41 41
60 60 58 56 56 56 56 56 55 54 50 47 44 43 43 43 43 44 43 44 45 45 44 43 41 40 39 38 38 38 38 38 38 39 39 39 39 39
54 56 53 52 52 52 53 53 52 51 48 41 42 41 42 42 41 41 41 40 39 39 38 37 36 36 36 36 36 36 36 36 36 36 37 39 38 38
50 51 48 48 49 49 48 48 49 48 48 41 40 40 41 41 41 40 36 33 34 32 34 34 34 34 33 33 33 33 34 34 34 36 37 37 38 37
48 47 46 46 46 46 47 46 46 44 46 43 40 39 37 38 37 34 33 31 26 30 29 29 30 31 32 32 32 33 32 34 35 35 35 36 36 37
45 45 45 45 45 44 43 43 42 42 42 41 38 37 36 34 35 33 31 30 29 23 24 26 27 28 30 31 32 32 32 34 34 34 34 36 36 37
42 41 42 41 43 42 41 39 39 39 39 40 38 35 35 32 31 30 28 27 27 25 24 24 25 27 28 29 30 29 31 31 32 34 35 36 36 36
40 39 38 39 38 38 37 36 37 38 38 39 38 35 31 31 28 27 26 27 25 26 25 24 27 27 27 28 28 28 31 33 34 35 35 34 34 35
37 38 36 36 35 34 35 35 34 34 33 31 30 25 26 26 30 27 26 27 27 27 26 25 26 25 27 23 26 29 31 34 34 34 32 32 33 34
35 34 34 34 35 32 29 30 29 28 28 25 29 27 29 28 31 30 29 28 26 26 26 27 26 25 27 27 28 28 32 33 34 32 32 33 33 33
30 31 30 29 30 30 30 28 27 28 30 31 31 30 29 28 27 29 29 28 27 24 26 25 28 27 28 28 27 27 30 30 32 33 33 32 33 33
29 29 29 28 30 26 23 22 21 23 26 26 28 26 27 30 31 27 31 27 28 27 27 26 27 27 26 28 27 27 27 28 29 30 31 31 32 30
28 28 30 31 28 24 19 18 17 21 22 21 20 21 23 27 26 26 29 29 28 28 27 27 28 27 27 27 28 29 29 28 28 28 30 30 30 29
25 26 28 28 27 28 23 25 23 24 23 21 20 22 24 27 28 29 28 29 30 29 31 30 27 28 26 23 24 28 28 29 29 28 28 30 31 31
24 26 29 27 25 25 22 24 27 25 22 23 24 26 28 30 30 28 28 27 25 27 29 29 28 27 28 25 24 24 26 26 27 28 27 28 28 28
24 25 27 26 25 22 21 22 23 23 24 26 26 28 29 27 27 28 26 25 26 25 30 29 23 27 25 25 25 24 24 23 25 26 28 28 28 28
26 26 23 21 20 20 20 20 20 20 24 24 26 27 27 27 26 27 27 25 25 24 26 29 29 28 27 25 23 23 23 25 27 29 29 26 27 27
23 20 17 17 17 16 15 16 18 21 24 27 27 27 26 26 25 27 27 26 24 24 25 27 27 25 24 24 27 23 24 24 24 26 27 26 25 26
23 19 20 20 20 21 22 24 24 24 25 27 26 26 26 26 25 24 23 24 23 22 23 25 25 23 19 16 22 28 24 23 24 24 25 25 25 25
27 25 24 23 23 24 24 25 26 26 25 26 26 26 25 24 23 23 23 21 22 21 20 20 19 22 20 15 15 19 24 20 21 21 22 24 25 27
28 27 26 26 26 27 27 27 26 26 25 25 25 25 25 24 23 23 23 23 23 21 20 20 21 24 19 18 18 17 20 24 24 23 25 24 22 22
28 28 28 28 28 28 28 27 26 25 25 25 25 25 24 24 23 22 22 21 21 21 21 20 20 19 17 20 17 17 19 21 23 24 25 25 23 20
28 29 28 28 28 28 27 27 26 26 25 25 25 24 24 22 23 22 22 21 20 19 19 19 19 18 19 19 20 20 20 20 21 22 23 25 26 27

GFSNE_sfc_dewp_102.txt.gz
Dewpoint
61 61 60 60 60 59 57 56 54 48 47 45 42 43 44 45 46 45 46 50 50 50 49 48 47 47 46 45 43 42 42 41 40 40 40 41 41 41
60 60 59 58 58 57 56 55 55 52 48 43 43 40 42 44 43 44 45 45 46 46 45 44 43 42 41 40 40 40 39 39 38 38 37 38 38 38
55 56 56 55 54 53 54 53 52 52 48 40 40 40 41 41 41 41 41 41 39 40 40 39 38 38 38 38 38 38 37 36 35 35 36 37 38 37
52 52 51 50 49 49 49 49 48 49 46 41 40 40 41 41 41 38 36 34 34 35 36 36 36 37 36 35 35 33 33 33 33 34 36 36 37 37
49 49 48 48 47 47 47 46 46 46 46 40 39 39 38 38 37 34 31 30 28 33 32 30 31 32 32 32 33 32 32 32 33 34 35 35 35 36
45 46 46 46 46 46 45 45 43 42 42 40 36 35 34 34 35 31 29 30 28 23 25 25 26 28 29 31 32 32 31 32 34 34 33 34 35 36
42 42 42 43 45 44 42 40 40 40 38 34 32 33 32 31 30 31 29 28 25 24 23 23 25 26 27 31 31 30 31 31 31 33 34 35 35 35
39 39 40 41 41 41 41 40 39 36 34 32 30 33 32 31 28 27 26 24 22 24 24 23 25 25 26 26 30 32 30 32 33 34 35 35 33 34
37 38 37 37 37 36 38 38 37 37 35 34 33 29 27 26 27 25 24 23 22 26 25 23 25 24 26 27 30 29 30 32 34 34 34 32 33 33
36 35 35 35 35 31 31 29 28 29 29 27 27 28 28 29 29 27 26 25 25 25 25 21 26 24 26 27 31 28 30 33 33 34 32 33 34 34
33 34 33 32 35 32 29 28 27 28 31 32 32 31 30 29 28 27 24 22 22 24 25 24 25 26 27 27 28 28 28 31 32 32 33 33 33 33
29 32 32 30 32 31 25 25 26 26 27 28 26 27 30 29 30 26 24 17 19 20 25 21 23 23 19 26 27 26 25 29 29 30 31 31 32 30
30 29 29 31 28 23 23 19 20 25 25 22 21 21 26 25 25 27 27 19 17 21 26 20 20 26 21 22 24 26 27 28 27 28 31 31 31 31
27 27 30 31 29 25 24 24 25 25 22 21 20 21 22 24 24 25 27 25 25 28 29 25 16 25 25 22 20 24 23 25 25 27 27 30 31 32
25 28 31 29 27 28 25 27 26 24 22 22 22 22 23 23 23 27 23 23 18 22 27 26 19 25 26 24 17 22 25 24 26 22 23 25 27 27
27 27 30 28 26 25 22 23 26 25 23 22 22 23 24 23 20 19 26 26 25 25 29 29 27 21 24 25 25 23 24 23 18 23 24 28 28 27
26 25 25 24 24 22 20 22 23 21 22 22 22 22 23 22 20 25 26 25 24 24 25 28 29 27 27 25 23 24 23 22 23 23 28 26 26 26
25 24 22 22 21 20 19 18 19 22 22 23 21 22 20 20 18 15 18 24 23 22 23 24 27 26 25 24 26 23 22 22 22 22 20 19 23 25
23 21 21 20 20 20 20 20 20 21 18 20 21 19 18 17 25 15 15 17 17 18 17 16 18 22 15 16 20 23 22 15 23 24 21 22 22 23
26 25 22 22 22 22 22 21 21 21 20 21 17 18 18 17 14 13 17 17 19 15 14 12 13 13 16 13 10 15 24 12 14 17 19 22 23 26
29 28 26 25 24 24 24 22 22 20 19 17 18 20 22 21 19 20 20 25 23 17 16 15 17 24 22 19 20 19 19 21 22 17 17 22 22 22
29 28 28 27 27 25 25 24 23 25 22 21 22 23 24 24 23 22 22 21 21 20 19 13 15 13 9 13 16 14 16 20 23 24 24 24 23 20
30 29 29 29 28 28 27 26 25 25 24 24 23 23 23 23 24 23 22 21 21 20 20 19 17 14 15 16 19 18 17 18 20 20 22 25 26 27

GFSNE_sfc_dewp_105.txt.gz
Dewpoint
61 61 60 59 59 59 57 56 55 51 50 47 44 44 44 44 46 46 47 51 51 52 51 50 49 49 48 48 46 44 44 43 42 41 41 41 40 40
59 59 58 58 58 58 58 57 56 55 51 45 42 42 43 43 45 44 45 47 48 48 47 46 45 44 43 43 42 42 42 41 40 38 37 38 38 38
55 55 56 56 56 55 55 54 54 53 51 41 41 41 41 41 41 42 43 40 41 43 42 41 41 40 40 40 41 40 39 37 35 35 36 36 37 37
50 51 52 51 52 52 52 52 51 50 48 43 41 40 41 41 41 39 36 37 35 37 38 38 38 40 39 38 37 36 34 34 34 34 35 35 36 36
48 49 50 49 49 49 49 48 48 48 46 43 40 40 39 39 38 34 31 29 30 36 36 36 35 35 34 33 34 33 32 32 33 34 35 35 35 35
46 47 47 47 48 47 47 47 46 46 44 42 39 37 36 36 36 31 29 30 28 25 27 27 28 29 30 31 33 33 32 31 33 35 34 34 35 36
43 42 42 44 46 47 45 44 44 42 41 38 33 33 30 31 32 32 30 28 26 25 23 23 25 25 27 30 31 31 31 32 33 33 34 35 36 36
38 38 40 42 43 43 43 43 42 40 38 36 34 31 31 31 30 29 27 24 23 24 23 22 24 24 25 26 30 32 31 32 33 34 35 35 35 34
38 39 38 39 39 39 40 40 40 40 39 36 33 32 30 29 29 27 25 25 24 25 24 21 25 23 25 28 32 31 30 31 33 35 35 35 33 33
38 37 36 35 35 34 31 30 30 30 28 28 30 27 28 29 28 27 26 26 25 25 25 20 25 24 26 27 30 29 29 33 34 34 35 33 34 34
35 35 35 35 37 34 30 28 28 29 32 33 32 32 32 32 30 28 26 24 22 24 25 23 24 25 26 27 27 29 28 30 32 33 33 32 33 33
32 35 35 33 37 33 28 27 26 27 28 28 27 30 30 31 30 26 26 18 19 20 25 20 21 22 18 25 27 27 26 29 29 30 31 31 32 30
31 31 32 35 35 32 29 25 25 26 28 23 21 25 26 26 26 28 27 20 13 15 26 18 12 18 16 18 23 25 26 27 27 28 30 31 31 32
30 30 30 34 29 25 24 23 26 28 23 20 21 23 25 25 25 26 26 25 24 21 24 18 11 13 11 13 18 23 21 23 24 26 26 28 30 30
28 29 33 32 31 26 26 25 27 23 22 23 23 24 24 24 23 21 22 22 17 20 23 23 24 13 16 12 13 18 25 23 24 19 21 23 24 26
29 30 31 30 28 27 24 25 26 24 24 23 24 24 24 21 18 16 15 17 18 24 29 28 27 26 24 25 24 23 24 20 16 18 20 22 26 28
26 27 28 26 24 23 22 21 24 26 25 24 24 25 25 21 19 15 16 21 23 23 24 27 29 26 25 23 22 22 23 23 23 17 18 22 23 25
25 24 24 25 24 23 21 20 22 24 24 24 24 25 23 20 17 12 12 15 18 20 21 22 23 26 21 22 27 22 23 23 22 17 18 23 23 23
25 24 23 24 25 24 24 23 22 23 24 23 23 22 21 20 25 14 14 17 17 15 13 13 12 14 15 15 20 23 21 14 23 23 21 20 19 20
26 26 25 24 22 22 23 23 23 23 22 22 22 22 20 18 16 13 18 17 19 15 12 9 13 17 18 16 16 16 23 12 14 13 16 20 21 25
29 28 27 25 24 24 24 24 23 22 22 22 22 22 22 21 21 23 22 25 23 19 19 18 20 25 20 20 20 21 21 24 22 13 11 18 20 21
32 31 29 28 28 26 26 25 24 24 24 22 21 22 23 23 24 23 23 23 23 24 23 20 16 16 15 20 20 20 16 20 22 23 24 24 22 19
32 32 32 30 29 29 28 26 25 24 24 24 23 23 23 23 24 24 23 23 23 23 22 20 20 18 20 18 20 19 17 17 20 19 21 24 25 26

GFSNE_sfc_dewp_108.txt.gz
Dewpoint
60 60 60 60 60 60 59 56 55 52 51 49 45 44 45 45 47 47 48 52 53 53 52 51 51 51 51 51 50 49 47 45 44 43 42 41 41 40
60 60 60 59 58 58 58 56 56 56 54 46 44 43 44 44 47 45 46 48 49 49 48 48 47 47 46 45 45 44 44 43 42 40 38 38 38 38
55 55 56 56 56 56 55 55 55 53 53 42 42 41 43 43 44 44 43 42 43 45 44 44 43 43 42 42 43 43 41 40 38 36 37 37 37 37
50 50 50 50 52 52 52 53 53 52 50 45 41 41 42 42 41 40 40 37 37 40 40 40 40 41 42 41 40 39 37 36 35 35 35 35 36 36
46 47 48 49 49 50 50 50 50 49 48 44 40 40 40 41 39 36 32 30 30 37 39 39 39 38 37 37 36 35 34 33 34 34 34 35 35 36
44 45 46 46 48 48 48 48 48 48 46 43 40 38 39 39 38 33 31 31 28 27 29 29 31 31 32 33 34 34 34 32 32 34 35 35 35 35
41 42 43 43 45 47 46 46 46 45 43 39 37 36 34 35 36 33 31 29 26 25 24 23 25 25 26 30 30 32 33 32 33 34 35 35 35 36
39 38 39 41 42 44 45 45 44 43 40 38 36 35 34 33 32 30 29 25 25 25 22 21 24 23 25 26 30 33 32 32 32 33 35 36 36 35
35 37 39 39 39 40 41 41 41 41 41 39 36 35 33 32 30 27 26 25 25 25 23 20 25 23 25 26 32 33 32 32 32 34 35 36 35 34
37 37 37 36 36 35 32 32 32 30 31 32 35 34 32 31 30 27 26 25 25 25 24 21 25 24 26 26 33 32 30 31 34 34 35 36 34 34
36 36 36 36 38 35 31 30 30 31 34 34 33 34 34 33 30 27 26 25 24 24 25 23 25 25 26 26 27 31 29 30 33 33 34 33 33 33
33 35 37 35 38 35 28 27 27 29 30 29 29 30 31 31 31 26 26 24 23 22 25 22 22 22 18 24 26 27 27 30 31 32 31 31 31 30
31 32 33 36 37 36 31 26 25 28 29 23 25 27 27 26 27 28 26 24 18 18 26 19 10 16 13 18 23 24 25 25 26 27 29 30 31 31
31 31 31 36 37 33 29 28 28 29 24 21 22 25 25 25 27 27 27 27 25 23 25 17 11 12 5 10 17 22 21 22 24 25 25 28 29 29
30 31 33 34 32 28 27 25 28 24 22 22 23 24 26 27 25 24 25 24 20 22 24 16 16 7 9 8 11 17 19 21 22 19 20 22 23 25
31 31 32 33 32 30 26 26 25 23 24 24 24 25 25 25 23 19 16 17 15 17 24 19 18 24 23 24 24 22 20 19 16 17 18 21 23 25
28 28 29 28 26 25 24 22 25 26 25 25 25 25 26 25 23 17 17 16 15 17 21 26 29 27 22 19 17 19 17 23 24 23 17 19 21 24
28 24 26 27 25 24 23 22 22 25 26 26 25 26 25 24 22 17 17 17 15 20 22 21 22 25 22 21 27 19 18 23 23 18 21 22 21 22
28 24 23 25 26 26 25 25 23 24 25 25 25 25 24 24 25 19 19 19 18 16 15 14 18 21 18 17 21 26 22 16 19 20 22 21 19 19
31 27 25 24 25 26 26 26 25 24 24 23 23 22 22 23 20 19 21 20 19 16 16 13 17 19 20 18 19 18 26 17 17 14 17 20 20 24
33 31 30 28 26 25 25 26 26 24 24 23 23 23 23 22 22 23 23 25 24 19 19 20 21 25 23 23 21 21 22 25 22 17 14 16 19 21
33 32 32 31 29 27 26 26 25 24 25 23 22 23 23 23 23 23 23 23 24 25 22 23 19 21 20 21 21 21 21 21 22 24 23 22 16 16
33 32 32 32 32 30 29 27 26 25 24 25 23 23 23 22 23 23 24 24 24 23 24 23 20 19 20 21 22 21 21 20 20 20 21 24 25 26

GFSNE_sfc_dewp_111.txt.gz
Dewpoint
59 59 59 59 60 59 59 58 56 52 51 50 47 45 46 45 48 48 49 53 53 53 53 53 53 53 53 53 53 52 51 49 46 45 44 43 42 41
58 58 58 59 58 58 58 58 57 56 53 49 45 44 45 45 47 47 48 49 50 50 49 49 49 49 48 48 49 48 47 45 44 44 41 40 39 39
55 54 54 54 54 54 55 55 55 55 54 45 44 43 43 44 45 45 44 44 45 47 46 45 45 45 44 45 45 45 44 43 41 40 40 39 38 38
50 51 49 49 50 51 51 52 52 53 52 51 42 42 42 43 43 43 41 38 39 42 42 42 42 42 43 43 43 42 40 38 37 38 36 35 35 36
45 45 45 46 47 48 49 49 50 50 50 46 42 41 41 42 40 36 35 33 32 39 40 40 42 42 41 40 39 38 36 36 35 35 34 35 35 36
43 43 43 44 43 45 47 48 48 48 47 45 41 39 40 41 39 36 34 32 30 29 32 33 36 36 36 36 36 36 35 33 32 34 35 35 35 36
40 41 41 42 44 45 46 46 46 45 44 40 37 37 36 37 38 36 34 31 28 26 25 24 26 25 27 31 31 35 35 33 33 34 36 36 36 36
37 37 38 40 40 43 44 45 45 43 41 39 37 37 36 36 35 34 32 29 30 25 23 22 24 23 24 25 30 32 32 33 33 34 35 36 36 36
38 36 38 38 39 39 38 38 38 39 42 41 38 38 37 36 34 31 30 28 25 24 22 20 25 23 25 25 31 33 33 33 33 34 35 36 36 36
38 37 37 36 36 37 34 33 33 34 34 32 36 37 36 35 34 33 29 26 25 25 23 22 25 23 26 26 33 33 32 31 32 34 35 36 36 35
35 36 36 36 37 37 32 31 31 32 35 36 35 35 35 35 31 29 26 26 23 24 25 23 25 26 26 26 27 32 30 30 32 35 35 36 35 34
32 33 37 36 37 37 30 28 28 30 31 30 29 30 31 33 30 27 27 22 24 23 25 24 25 24 21 25 26 26 27 31 32 33 33 33 32 30
31 31 33 36 37 38 34 27 26 28 30 27 27 28 26 27 27 27 26 25 20 23 27 23 16 19 16 19 23 24 25 25 25 26 29 30 30 31
32 32 32 34 37 37 34 32 30 30 24 21 23 24 24 25 26 28 27 27 27 27 29 22 16 16 8 12 18 22 20 22 24 25 25 27 27 28
32 32 34 34 36 34 30 28 27 26 24 22 22 22 23 23 25 24 25 25 25 27 24 18 18 8 10 8 12 17 17 20 22 19 20 22 23 24
34 32 33 33 34 31 29 26 25 24 24 23 23 24 25 24 21 23 22 22 22 22 25 19 19 17 13 16 15 14 18 15 15 18 18 21 23 24
32 28 28 30 29 28 26 23 25 25 25 24 24 24 25 25 24 23 22 21 20 20 20 24 26 25 25 18 14 18 15 16 20 21 21 18 21 23
33 26 26 28 27 27 25 23 22 24 26 25 24 25 25 25 24 22 21 21 20 21 19 21 24 25 23 23 26 14 14 15 20 23 20 21 21 22
34 29 26 26 27 27 26 24 24 24 26 26 25 24 25 25 26 23 22 21 20 20 19 17 15 20 14 14 22 27 22 19 23 23 23 23 23 22
33 32 27 26 25 26 26 26 26 24 25 25 25 25 25 24 24 22 22 21 22 21 19 16 15 18 17 15 15 21 27 20 21 20 20 22 22 24
34 33 31 30 28 26 26 25 25 25 24 23 23 22 22 23 23 23 23 25 24 21 20 20 20 25 21 21 20 21 22 27 23 19 19 18 19 21
34 33 33 32 31 29 28 28 26 26 26 25 24 23 22 22 21 22 23 22 24 25 22 20 20 24 22 21 20 20 22 22 25 27 26 23 17 15
34 33 33 33 33 32 30 29 28 27 26 26 25 24 24 23 23 23 22 23 23 24 25 23 19 20 21 22 22 22 21 20 20 20 21 24 25 26

GFSNE_sfc_dewp_114.txt.gz
Dewpoint
58 58 58 58 59 59 58 58 55 52 52 52 50 46 48 47 48 49 50 54 54 54 54 54 54 54 55 55 54 54 53 51 49 48 46 46 45 44
58 57 58 57 57 57 57 57 57 56 53 51 47 45 45 45 48 48 49 51 52 51 51 50 51 51 51 51 51 51 50 48 47 47 45 43 42 42
53 52 51 51 51 52 52 52 53 54 52 48 45 44 44 45 46 46 46 45 47 48 48 47 47 47 47 47 48 48 47 46 45 43 43 42 41 40
50 49 48 48 48 48 48 49 50 51 51 50 45 42 44 44 44 44 42 40 41 45 45 45 44 44 45 45 46 44 43 42 41 42 40 38 38 38
45 45 44 44 44 45 46 46 48 49 50 49 45 42 42 43 41 39 38 35 35 42 42 42 43 44 44 43 42 41 39 39 39 38 36 36 36 37
42 42 42 41 41 41 43 43 45 47 48 46 43 40 41 41 40 37 36 34 33 32 36 38 41 41 40 40 39 38 36 35 35 35 35 36 37 37
39 39 39 41 43 43 43 41 43 45 44 42 39 39 37 38 38 37 36 34 31 29 28 27 28 27 29 33 34 38 36 34 33 34 36 36 37 37
39 37 37 39 40 42 43 43 44 43 41 39 37 38 38 38 37 36 33 32 32 29 26 24 24 24 24 25 31 34 35 35 34 35 36 37 37 37
38 35 37 38 37 36 37 37 36 38 38 40 39 39 38 38 36 34 33 33 32 26 24 22 24 22 24 25 31 33 33 34 34 35 36 37 37 36
37 36 35 35 35 36 33 32 32 34 36 34 35 36 37 37 37 35 33 28 26 25 24 25 25 22 26 26 34 34 34 34 33 34 35 36 37 37
34 34 35 34 37 38 32 30 30 31 34 38 38 37 37 36 33 32 30 29 26 25 25 23 26 25 27 26 27 34 33 32 33 35 36 36 37 35
33 33 37 36 37 38 32 29 28 29 31 30 29 30 31 32 31 28 31 30 27 26 25 25 23 26 25 26 27 27 28 31 32 33 34 35 35 31
33 33 33 36 38 39 36 28 27 27 30 27 27 28 26 28 28 27 27 28 20 18 27 24 22 24 22 25 24 26 26 26 26 28 32 32 32 32
33 33 33 34 36 38 36 34 31 30 25 22 23 25 26 27 27 27 27 26 26 25 29 25 21 22 21 20 22 24 22 23 24 25 25 27 29 30
34 34 34 34 35 36 35 30 28 28 25 24 24 24 25 23 20 22 23 24 22 27 26 22 22 17 16 16 19 21 21 22 23 21 21 22 23 24
38 35 33 33 34 34 31 27 26 26 24 23 23 23 21 18 19 17 16 17 20 21 26 21 22 21 17 18 18 18 20 16 18 20 20 21 23 24
35 30 29 30 30 30 28 26 24 25 24 23 21 22 23 21 20 17 18 16 15 17 22 25 26 24 23 20 17 20 18 17 21 20 20 19 22 23
35 29 29 29 28 28 27 26 24 24 25 25 23 24 23 22 20 17 17 17 16 20 21 21 26 25 23 24 26 18 18 18 20 22 22 21 19 22
34 31 29 28 28 28 27 24 21 23 23 26 25 24 24 24 25 23 20 20 20 21 20 19 18 19 18 16 22 27 21 19 22 22 22 22 21 23
33 33 31 30 28 28 26 24 23 21 23 25 25 25 25 24 23 23 23 23 23 20 19 19 18 17 18 17 16 17 27 20 21 20 20 23 24 25
34 33 33 31 30 30 28 27 26 24 24 25 25 24 24 24 24 24 23 25 25 23 21 21 20 25 23 21 18 19 21 28 25 20 20 19 20 21
34 34 33 33 32 31 30 28 27 27 27 26 25 25 23 23 22 23 23 23 24 25 23 21 20 23 22 21 20 19 20 23 26 27 25 22 18 16
33 33 33 33 33 33 32 30 29 28 28 27 26 25 25 23 23 22 22 22 22 23 25 22 20 22 23 23 22 21 21 21 21 21 22 27 28 28

GFSNE_sfc_dewp_117.txt.gz
Dewpoint
60 60 59 59 59 59 59 58 56 52 52 54 53 49 49 50 50 49 50 54 55 56 56 56 56 56 56 57 58 57 55 54 52 51 49 48 48 48
59 59 57 55 55 55 55 56 56 56 54 54 51 48 48 47 48 49 51 52 53 53 52 53 53 53 53 53 53 52 51 50 50 49 48 47 46 46
55 53 51 51 52 51 52 52 52 53 53 52 49 47 47 47 47 48 49 49 50 51 50 50 50 50 50 51 51 51 50 50 50 47 46 45 45 44
50 49 48 48 48 48 49 49 51 51 51 49 50 47 45 46 47 47 45 44 45 48 48 47 47 47 47 48 49 48 48 46 44 45 44 43 43 41
47 46 45 45 45 46 47 47 47 48 49 49 49 44 44 44 44 43 42 39 38 44 45 45 45 45 45 46 45 44 43 42 43 41 39 38 39 39
44 44 44 44 44 44 45 45 46 45 46 47 46 43 42 43 42 39 38 36 35 35 40 41 44 44 44 44 42 41 40 40 39 38 37 36 37 38
42 41 42 42 43 44 44 44 43 43 43 44 43 42 40 39 40 40 40 35 34 34 33 33 35 34 37 39 40 39 37 36 36 36 36 37 37 38
41 40 40 40 41 43 42 42 42 42 43 42 41 40 40 39 39 37 35 34 34 32 31 29 28 30 28 31 33 38 38 36 35 35 37 37 37 38
41 39 39 38 38 38 38 37 37 38 38 39 40 40 40 39 38 36 35 35 36 30 28 28 25 25 26 23 30 34 35 36 35 35 37 37 38 38
39 39 38 38 37 37 36 35 34 34 37 36 36 36 37 37 38 37 36 31 29 27 27 31 25 24 25 26 31 33 35 34 35 35 36 37 37 37
36 37 37 37 37 39 35 34 32 33 33 35 35 37 37 37 35 34 32 32 29 27 26 25 26 25 26 27 29 35 35 35 34 35 35 36 37 37
35 35 36 38 37 39 35 33 31 30 32 31 30 29 29 30 31 29 34 33 31 29 27 28 26 28 28 28 29 31 33 34 34 34 36 36 37 35
35 35 34 36 38 39 38 32 30 27 30 28 27 28 27 27 28 28 28 33 31 29 27 30 30 28 29 28 27 29 29 31 32 32 34 35 35 34
35 34 34 35 36 37 38 36 34 31 27 24 23 24 26 28 28 28 28 28 29 31 31 31 31 30 29 27 27 27 28 28 28 30 30 31 33 34
36 35 35 35 35 37 38 36 30 29 28 25 24 26 27 29 28 28 29 28 29 29 29 27 29 27 28 29 27 26 27 28 27 29 28 28 29 28
40 38 37 35 35 35 35 30 27 27 28 28 26 25 27 28 28 27 28 28 28 29 28 27 27 27 26 26 26 26 27 27 27 27 28 27 26 26
37 33 31 31 32 32 31 29 26 25 28 26 26 26 25 27 27 26 26 26 26 26 26 27 27 27 27 27 25 26 26 25 26 27 26 26 27 26
36 32 31 31 30 30 29 29 27 27 27 28 27 27 27 26 26 26 26 26 26 25 25 26 27 27 26 26 28 26 25 25 26 27 26 25 24 25
35 33 32 31 30 30 29 29 29 28 30 29 29 28 28 27 27 26 26 25 25 25 26 26 26 25 22 21 22 28 26 25 25 25 25 25 24 24
35 34 33 33 31 30 31 30 29 29 28 28 28 28 27 27 27 27 26 25 25 25 25 25 24 25 23 22 23 24 28 26 25 25 24 25 24 26
35 34 34 34 32 31 32 32 31 30 30 28 28 27 27 27 26 27 26 26 26 25 24 25 26 26 27 25 22 22 24 28 27 26 26 24 21 21
34 34 34 34 33 33 32 32 31 30 31 31 29 28 27 27 26 25 25 25 25 27 26 27 26 27 25 23 23 23 23 24 27 29 27 24 25 23
33 33 34 34 34 33 33 32 31 31 30 31 30 29 28 26 25 25 24 24 25 25 26 26 25 25 25 24 24 24 24 24 23 23 27 29 28 27